GFSGL_500_spd_045.txt.gz
Wind_Speed
49 51 54 57 60 62 67 73 76 78 84 89 93 96 97 101 103 104 94 77 66 60 55 45 41 44 45 40 42 47 48 49 47 44 44 44 45 45 46 48 47 47 48
51 55 57 60 63 69 73 74 79 85 89 92 94 95 99 102 98 83 67 54 50 46 39 36 37 39 40 45 47 49 51 53 51 48 43 44 45 47 50 51 50 49 50
54 56 59 64 69 70 73 79 84 87 90 91 94 98 99 89 74 58 46 42 41 39 38 39 39 42 45 47 51 51 48 47 48 50 46 47 46 46 47 50 51 53 53
56 59 64 67 68 73 78 83 86 87 89 92 96 96 85 72 57 43 41 41 40 39 38 40 43 45 48 51 48 46 47 47 45 42 38 38 39 38 40 44 47 50 51
59 63 65 67 73 77 81 84 86 87 91 94 92 83 70 57 44 41 39 40 41 41 41 44 46 48 51 48 46 46 45 40 36 38 40 40 40 40 40 40 41 44 44
62 64 67 72 77 79 82 84 86 89 92 88 81 71 59 44 38 36 37 40 42 43 42 45 46 47 47 44 44 43 37 36 39 42 40 39 39 40 40 40 40 38 39
63 67 72 76 77 79 82 85 87 90 86 78 72 59 47 35 35 35 37 40 42 43 43 44 45 45 43 42 41 34 34 39 39 39 36 34 32 34 35 37 37 33 36
67 72 74 76 78 81 83 85 88 84 76 72 60 48 35 33 35 34 37 40 42 42 44 44 44 42 39 41 32 30 34 35 36 37 34 31 30 30 32 31 28 27 29
71 73 76 78 79 81 83 86 82 74 73 63 49 37 30 32 32 33 37 40 40 42 44 43 42 37 38 35 27 29 30 32 36 35 33 29 28 26 23 19 20 20 22
73 75 77 78 80 82 84 81 72 71 67 52 40 30 29 30 30 32 37 38 39 40 42 41 38 34 35 29 24 27 26 31 33 32 29 27 25 18 13 12 13 14 19
75 77 78 79 80 83 80 73 69 68 56 43 33 28 28 29 29 33 36 36 38 39 39 38 33 31 32 25 23 24 25 29 31 27 24 22 20 13 8 6 7 9 13
76 78 78 79 81 79 72 68 67 60 47 37 29 26 28 27 29 33 34 35 36 37 37 35 31 30 29 22 21 23 24 27 28 25 21 19 17 13 8 2 3 6 8
78 77 78 80 79 72 66 65 62 51 41 33 28 27 27 26 29 32 32 33 34 35 36 35 31 29 27 21 19 21 22 25 25 24 19 16 15 11 7 4 3 6 10
79 77 78 78 72 65 63 60 54 43 36 31 27 26 26 26 28 30 30 30 32 34 36 35 32 30 27 20 18 19 19 22 22 22 20 16 12 10 8 4 4 6 10
77 76 76 72 65 62 59 54 46 38 34 30 26 25 24 25 27 29 28 28 29 31 34 36 34 30 29 24 17 18 17 18 19 19 19 17 12 7 5 3 3 6 8
75 75 71 64 60 59 53 47 40 35 32 28 25 24 23 24 26 27 27 27 29 30 32 35 35 31 26 24 19 16 17 15 16 15 15 14 11 7 2 3 4 5 6
74 70 64 59 58 53 47 41 36 34 30 27 24 22 21 24 25 26 26 26 28 28 30 32 35 32 28 24 20 16 15 16 15 14 12 11 9 6 3 2 4 7 9
69 63 59 57 54 46 40 35 32 30 29 29 25 23 22 23 23 24 25 26 27 28 28 30 32 33 30 25 22 18 14 14 14 13 11 8 7 4 3 4 7 10 12
63 58 56 54 48 40 35 31 29 28 27 27 26 25 23 23 24 24 24 25 27 27 27 28 30 32 32 28 23 19 16 15 14 13 11 8 6 5 2 3 6 9 12
58 57 54 50 40 35 33 29 28 27 27 27 27 25 24 25 24 24 25 25 26 25 25 26 28 29 32 31 27 21 18 15 16 16 14 10 9 9 8 6 7 9 10
55 53 52 48 40 32 31 30 29 29 29 28 27 26 25 24 25 26 26 26 25 26 27 26 26 28 29 31 30 25 20 18 15 17 18 16 13 12 13 13 13 12 12
53 52 50 46 39 34 32 32 32 31 30 29 29 28 27 27 27 27 26 27 27 27 28 26 27 28 28 28 29 28 24 19 17 16 18 20 20 17 15 16 17 18 18
51 51 50 44 37 34 33 32 32 32 31 31 31 30 30 29 28 28 29 28 28 28 28 29 29 28 28 27 27 28 27 23 18 17 16 19 22 24 22 19 18 18 21
51 50 48 43 35 34 34 33 33 33 33 33 33 31 30 31 31 30 30 30 29 30 30 30 28 28 28 26 26 26 28 27 23 19 18 16 19 22 27 27 25 22 21
49 48 46 42 35 34 34 34 34 35 34 33 33 32 32 32 31 30 30 30 31 31 30 30 29 30 28 26 26 26 27 27 26 22 19 18 17 18 22 26 30 30 28
47 46 44 40 35 35 34 34 34 35 34 33 33 32 32 33 32 32 33 33 32 32 32 32 31 30 28 27 26 26 27 27 27 25 21 19 18 17 18 21 24 28 30

GFSGL_500_spd_048.txt.gz
Wind_Speed
47 51 53 54 56 59 60 63 66 68 72 77 82 86 88 89 90 92 96 91 81 69 52 46 46 45 45 44 44 46 47 47 49 45 47 46 45 46 48 50 50 50 48
51 52 54 56 59 60 63 65 68 72 77 82 84 86 87 88 91 93 85 78 65 48 44 43 42 42 42 44 47 46 48 48 50 48 41 45 46 47 48 50 51 51 50
53 55 56 58 60 62 65 68 72 77 80 84 85 86 86 90 91 82 75 62 46 41 40 41 43 44 43 45 47 48 48 48 45 47 44 45 42 41 40 41 44 46 48
56 57 58 59 62 64 68 72 77 80 83 84 85 85 89 88 79 74 61 46 39 38 40 42 45 45 45 47 47 48 48 44 44 44 38 37 40 43 44 44 42 42 42
58 58 59 61 64 68 72 77 80 81 82 83 84 87 86 78 73 60 48 38 37 38 40 44 47 46 48 48 47 47 43 43 40 35 36 40 41 43 44 43 43 43 42
59 60 62 64 68 72 76 79 80 80 81 82 86 85 77 73 62 50 38 35 37 37 40 44 46 47 46 45 45 42 41 38 33 36 37 37 40 40 40 41 40 39 39
60 61 63 67 71 75 78 78 79 80 81 84 84 76 71 64 50 38 34 35 35 36 41 44 44 45 44 44 41 38 37 31 34 34 35 38 37 37 37 36 36 36 35
61 63 67 71 75 77 78 81 81 80 83 82 74 69 65 51 40 32 32 32 33 38 41 42 43 43 42 40 36 36 29 29 32 34 36 37 35 34 37 32 28 30 31
63 67 70 73 75 76 81 83 81 82 82 75 67 65 53 42 32 30 31 30 33 38 39 40 41 41 40 36 34 31 25 28 29 33 35 34 32 30 30 23 21 20 18
67 70 71 74 76 78 83 82 80 80 75 66 63 56 43 35 28 29 30 30 34 36 37 37 38 37 35 33 33 26 23 26 27 31 33 31 29 26 23 17 15 13 13
71 71 73 76 77 82 82 80 80 75 66 61 57 46 37 31 27 29 29 30 34 34 34 34 36 35 33 31 31 24 22 24 26 29 29 28 26 23 19 14 10 9 9
72 73 75 78 80 82 80 79 74 67 61 56 49 39 33 28 27 28 28 30 33 32 32 33 34 33 32 29 27 22 21 23 24 26 26 26 22 20 18 14 9 7 6
74 75 77 78 82 81 79 73 67 60 56 50 42 35 32 27 27 27 27 29 31 31 31 31 33 34 31 30 27 22 19 22 23 24 24 24 21 17 15 13 10 6 3
76 77 79 80 80 77 73 66 59 55 50 44 38 33 30 27 26 25 26 28 29 30 29 30 32 33 32 29 26 22 18 19 20 22 22 23 21 15 13 11 8 6 3
77 79 80 78 76 71 65 60 54 50 44 40 35 32 29 27 26 25 25 27 28 28 28 29 30 32 33 30 27 23 18 17 18 18 19 20 20 16 10 7 6 3 3
79 80 77 74 69 64 58 54 50 44 39 36 33 30 28 26 26 25 25 26 26 27 27 28 28 30 32 31 28 24 20 17 16 17 17 17 18 16 12 7 5 4 3
78 76 73 68 63 58 54 51 46 39 34 32 29 28 26 25 26 25 25 26 25 25 25 26 26 28 29 30 29 25 21 18 16 16 15 14 14 15 13 8 4 3 5
73 71 67 62 57 53 51 49 42 35 32 30 28 25 25 24 25 25 25 26 25 25 26 25 25 26 27 28 29 27 22 19 16 15 14 13 12 12 11 8 5 1 2
70 66 62 57 53 51 50 46 40 33 31 29 28 27 25 24 23 24 26 26 26 26 26 25 25 26 25 26 27 29 26 21 18 15 14 13 12 10 9 7 4 1 3
64 61 58 55 51 48 48 45 39 33 31 31 31 31 29 26 25 24 24 25 27 27 27 26 26 26 25 25 26 27 28 25 19 17 16 15 14 11 10 9 6 6 6
61 59 56 53 50 47 46 44 38 33 32 32 32 31 29 29 29 28 26 25 27 27 27 27 27 27 25 26 26 25 26 27 24 18 16 16 17 16 14 12 12 11 11
58 56 53 50 48 46 45 43 38 34 33 33 32 32 32 31 31 30 28 27 27 27 28 28 28 29 29 28 27 25 24 25 25 22 18 16 17 20 20 18 16 16 16
56 53 50 48 47 45 44 42 37 34 34 34 34 33 34 33 33 31 30 29 28 27 28 29 30 30 29 28 26 25 24 24 24 24 21 18 17 18 22 24 22 20 20
53 50 49 47 45 44 42 40 36 34 34 34 35 35 35 34 33 32 31 30 29 28 28 29 30 30 30 29 28 27 25 24 24 24 23 21 18 18 18 22 26 27 24
49 49 50 48 45 43 41 40 36 34 35 35 34 34 34 34 33 32 31 30 29 30 30 30 30 31 30 29 29 28 25 25 24 24 24 23 20 18 19 19 22 26 29
51 52 51 49 45 42 40 38 36 35 36 36 35 35 34 34 33 32 32 32 32 32 33 33 33 33 32 31 29 27 26 25 25 25 24 24 23 20 19 20 20 22 25

GFSGL_500_spd_051.txt.gz
Wind_Speed
52 53 54 55 56 57 59 60 61 63 66 68 72 77 81 85 86 87 86 87 90 87 80 74 64 52 48 46 47 49 50 50 52 49 44 45 48 47 48 49 49 50 48
54 56 57 58 58 60 61 62 63 66 68 72 77 81 83 85 86 85 86 90 88 79 73 63 49 43 44 46 49 50 51 50 51 48 43 45 45 44 47 48 47 48 48
56 57 59 59 60 61 62 63 65 69 72 76 80 83 84 86 85 85 88 83 75 71 59 46 40 42 43 46 50 51 50 50 49 49 44 41 43 41 39 41 42 44 44
56 58 59 59 61 62 63 65 68 72 75 79 82 83 86 85 85 87 83 75 70 58 45 38 39 41 43 48 50 49 49 48 48 46 41 40 36 37 41 42 43 45 46
56 58 60 61 62 64 65 67 70 74 77 81 82 86 85 83 85 82 73 68 58 45 37 38 38 41 45 48 49 48 49 47 44 40 39 33 36 38 41 44 45 44 42
58 60 61 62 64 64 68 70 74 77 80 80 84 84 84 86 81 74 67 59 47 37 36 36 38 44 47 46 44 45 46 43 38 38 31 34 35 39 42 43 42 41 38
59 61 62 62 64 69 72 76 77 79 79 82 83 84 85 84 71 66 59 48 38 34 35 36 39 45 44 43 44 42 41 38 38 31 31 34 36 39 41 40 39 38 37
59 61 62 63 70 74 76 77 79 80 81 83 83 83 84 75 64 59 49 40 34 34 34 36 41 43 41 42 42 40 38 37 33 29 31 33 36 37 37 38 36 33 29
61 60 62 67 75 78 79 79 81 81 83 83 83 84 75 64 57 50 41 35 32 33 34 37 39 40 40 42 40 38 36 33 27 28 30 32 33 35 33 33 32 28 22
60 63 66 74 76 77 78 80 81 83 82 83 83 75 64 58 50 43 37 32 31 32 34 37 36 36 37 39 38 35 33 30 24 27 29 31 32 31 30 29 26 22 19
62 67 72 75 78 79 80 82 82 82 83 82 73 63 57 51 44 37 33 31 31 31 31 34 35 35 36 38 37 33 30 27 24 25 26 28 29 29 26 26 22 17 14
67 74 75 77 80 81 82 81 81 83 82 71 63 56 52 45 39 35 32 30 30 29 30 32 32 33 34 36 36 33 30 27 22 23 25 26 27 27 23 22 18 14 10
71 73 75 81 82 83 81 81 81 79 70 62 56 51 45 41 37 33 30 30 30 29 29 30 31 31 32 35 35 33 30 27 22 21 23 25 25 24 21 19 16 13 10
75 72 78 79 81 80 79 79 76 67 59 54 51 45 40 38 36 32 28 29 30 29 29 28 29 29 30 32 33 31 29 26 22 20 21 23 22 22 21 16 14 11 9
74 79 80 81 79 78 77 72 64 57 52 51 47 40 36 35 34 32 29 28 28 27 28 27 27 27 28 31 32 33 30 26 23 19 19 20 20 20 19 16 12 9 7
77 80 78 77 77 76 69 61 56 52 50 49 44 36 33 33 32 30 29 28 29 28 27 26 27 27 28 30 31 31 30 28 24 20 17 17 19 18 18 16 12 9 8
76 74 75 77 73 67 60 57 53 50 47 46 41 35 32 31 30 30 29 28 28 28 27 27 27 28 28 29 29 30 30 28 25 21 18 16 16 17 15 15 13 8 6
72 75 73 70 65 62 58 55 52 48 45 45 40 33 32 31 31 31 30 27 26 28 28 27 27 28 28 28 28 28 28 28 27 23 19 16 15 15 14 13 12 9 6
72 72 70 68 64 61 57 54 51 47 44 43 38 33 32 31 32 31 30 29 28 27 25 26 27 27 28 28 27 27 28 28 28 27 21 17 15 14 13 12 11 9 7
76 76 71 65 62 57 54 51 49 46 44 42 37 32 33 32 30 30 30 29 30 30 28 27 27 27 28 29 28 27 28 27 27 27 25 19 17 15 14 12 10 9 7
81 75 68 63 59 54 51 48 47 44 43 41 36 32 33 33 31 31 31 32 31 30 30 29 28 27 28 29 29 29 28 27 25 25 25 23 18 16 16 15 13 10 9
81 69 61 57 54 51 48 46 45 43 41 40 36 32 33 35 34 33 33 33 32 32 30 30 29 28 27 28 28 28 27 26 24 24 24 23 21 17 16 18 18 15 13
73 65 59 55 52 49 46 45 44 43 40 39 36 33 32 34 35 35 34 34 33 32 31 30 30 29 27 27 28 27 26 25 25 25 23 23 22 20 17 17 19 21 19
68 65 61 57 52 51 50 47 45 43 40 38 36 32 33 34 34 34 34 33 33 32 31 30 30 29 28 27 28 27 27 26 25 24 23 22 22 22 20 18 19 20 23
65 61 59 56 52 51 50 48 45 42 39 37 35 33 33 34 34 34 33 33 33 32 31 31 31 31 31 30 30 29 28 27 25 24 24 23 23 22 22 20 19 20 21
58 55 54 51 49 49 48 46 43 41 38 36 34 33 33 34 34 33 33 33 33 34 33 33 34 34 35 34 33 32 31 30 28 25 25 25 24 24 23 22 20 19 21

GFSGL_500_spd_054.txt.gz
Wind_Speed
50 53 55 56 56 57 58 59 61 61 63 64 65 67 70 74 79 83 84 85 86 85 88 88 80 74 68 56 47 43 45 49 52 51 51 49 48 47 47 49 48 47 47
53 55 56 56 54 56 58 61 61 64 65 67 67 70 74 77 81 82 83 86 85 88 86 79 71 65 57 44 41 42 45 48 54 54 49 45 45 46 45 46 45 44 44
56 57 58 56 56 58 60 62 64 66 66 68 71 74 78 78 81 83 83 84 86 85 78 70 65 55 42 39 41 42 46 52 53 50 48 45 45 43 42 41 40 39 39
57 57 57 57 58 60 62 64 66 66 68 74 76 78 80 82 82 81 83 85 83 76 69 63 53 42 37 38 39 44 49 48 47 47 44 42 39 40 38 36 36 38 40
57 56 57 58 59 61 63 64 64 67 72 77 78 79 82 82 83 81 84 83 78 68 62 53 42 36 35 36 42 47 46 46 45 44 42 39 38 34 33 34 36 40 39
56 56 57 58 60 62 62 62 65 71 76 80 80 82 82 83 83 84 83 76 68 62 53 43 36 35 35 38 44 43 42 42 41 41 39 37 30 31 32 36 39 41 38
57 58 59 61 61 61 63 63 69 73 78 81 82 85 84 83 82 81 75 69 62 54 44 37 33 34 35 40 43 41 42 43 43 41 37 32 28 31 34 36 38 39 38
58 59 61 61 60 63 66 69 74 76 81 85 86 86 84 83 80 74 68 62 54 45 38 33 32 34 35 40 40 39 41 42 41 38 34 28 29 31 35 35 36 34 35
60 61 60 58 61 69 74 74 78 83 84 85 86 83 83 82 73 67 61 54 45 39 35 32 32 33 36 39 38 37 39 38 37 36 30 26 29 31 33 34 34 32 29
59 60 62 60 67 74 74 81 82 84 83 87 81 82 79 73 65 58 54 47 40 36 33 31 31 32 35 37 36 36 37 36 34 32 28 26 28 29 31 33 29 29 26
62 65 63 63 69 74 81 83 85 86 88 84 82 76 69 64 55 51 46 41 37 33 30 31 30 30 33 34 34 36 37 35 33 30 26 24 26 28 29 30 26 25 22
67 69 69 69 76 79 79 83 86 86 83 80 74 67 60 54 50 46 40 38 35 31 28 29 29 30 31 32 32 34 37 37 34 30 26 23 24 26 27 27 22 22 19
68 71 70 73 76 79 83 82 81 81 76 70 64 59 53 49 46 43 35 35 34 31 27 27 28 29 29 30 30 31 35 37 35 30 26 22 21 23 24 24 20 18 18
70 74 80 82 80 79 79 78 77 74 71 62 57 52 48 45 43 38 34 32 33 30 27 26 28 28 28 28 29 30 32 33 34 31 26 21 20 21 21 22 20 15 16
72 76 77 78 77 76 75 72 74 70 65 59 55 51 46 43 41 35 33 32 30 28 26 27 28 28 28 28 28 29 31 32 32 32 26 22 18 18 19 19 19 15 12
71 72 72 72 73 73 74 75 74 67 59 55 52 50 45 43 40 34 32 31 30 29 27 27 27 28 28 28 28 28 29 30 30 30 29 23 18 16 17 17 17 15 11
68 68 68 70 72 75 76 81 73 62 56 51 48 46 45 42 39 33 31 31 30 30 28 27 26 27 28 27 27 27 27 27 29 30 30 25 20 16 15 16 15 14 11
67 68 70 71 73 75 78 80 67 59 53 47 45 44 43 41 38 33 32 31 31 30 28 28 27 27 26 27 27 27 27 27 27 30 29 28 21 17 14 13 13 12 10
68 70 72 73 74 76 79 74 61 56 51 45 43 42 41 39 36 32 31 31 30 29 28 28 28 28 27 27 27 27 27 27 27 28 28 26 25 18 14 12 11 10 9
72 74 75 75 76 78 78 68 59 55 50 44 41 41 40 39 35 31 29 31 31 30 30 30 29 28 28 28 28 28 28 26 26 25 25 24 24 21 16 13 11 10 8
74 75 76 78 79 76 75 65 59 53 51 48 45 42 40 38 35 32 30 31 31 32 31 30 29 29 29 28 27 27 26 25 24 23 22 23 23 22 19 14 12 12 9
75 77 81 83 79 73 67 63 57 52 49 49 46 43 40 38 35 31 30 31 32 33 33 31 30 29 28 28 27 26 24 24 24 23 22 23 22 21 20 17 13 13 13
81 84 83 78 71 66 60 56 52 48 47 46 43 40 38 36 35 31 29 29 30 31 32 32 30 30 29 28 28 26 24 24 24 24 23 22 21 20 19 18 16 14 14
86 82 74 68 61 57 55 52 48 46 45 43 41 38 36 34 33 30 30 30 31 31 31 31 31 30 30 30 29 28 27 26 24 24 23 22 22 20 19 18 18 15 15
76 69 61 58 56 53 52 51 47 45 44 42 40 37 35 33 31 29 30 32 32 32 31 31 30 30 30 31 30 30 30 30 27 26 25 23 23 21 20 20 19 18 16
65 62 59 56 53 51 49 47 45 44 43 41 38 37 35 33 32 32 31 31 32 30 29 29 29 29 30 31 32 32 32 32 31 30 27 26 24 23 22 22 21 20 18

GFSGL_500_spd_057.txt.gz
Wind_Speed
50 52 53 54 55 57 57 57 56 57 59 61 63 65 64 64 69 73 78 81 84 86 86 84 87 85 78 70 63 56 47 42 41 37 40 44 49 49 46 46 46 47 48
53 54 56 57 57 58 58 58 58 60 61 63 64 64 63 67 72 77 80 83 84 86 84 86 84 76 67 60 55 45 38 39 40 42 44 45 44 45 46 45 43 43 43
53 55 56 57 57 57 57 58 61 61 63 64 64 66 67 73 76 79 82 85 85 84 85 83 76 66 58 53 44 38 37 38 42 47 43 42 42 43 44 44 42 40 39
55 55 57 57 57 57 59 60 61 62 62 63 67 71 75 79 81 84 89 87 85 84 82 75 66 57 52 42 35 35 35 38 44 44 42 42 41 41 42 40 37 32 32
55 57 57 56 57 58 59 61 61 59 64 73 80 83 80 81 85 87 89 87 86 83 75 66 57 52 43 35 33 33 36 40 43 41 41 41 40 39 38 34 30 29 32
55 56 55 57 59 59 59 60 60 60 64 68 74 80 82 85 87 88 86 87 82 72 63 55 52 45 37 32 32 33 37 41 39 38 38 37 36 35 30 28 29 31 32
55 55 57 58 59 60 60 61 64 67 70 73 77 80 87 88 87 86 85 78 69 60 54 52 46 38 33 32 32 34 37 41 39 40 39 37 34 31 27 27 30 33 35
56 56 56 57 57 61 66 67 71 76 79 78 81 84 84 84 83 81 74 66 58 53 51 47 39 33 30 30 31 33 37 38 37 39 39 36 34 29 26 27 30 31 35
56 56 57 59 60 62 72 66 74 80 78 81 85 82 81 81 76 72 65 58 53 50 46 42 35 30 29 28 30 32 35 36 36 37 37 34 31 27 26 27 30 32 32
57 58 60 60 60 62 69 75 85 82 81 80 83 81 79 76 71 64 58 53 48 45 40 37 33 29 28 28 29 31 33 33 33 35 35 34 30 25 25 27 29 32 30
57 59 61 62 68 69 73 78 82 85 84 83 80 75 74 71 64 57 53 48 45 41 35 33 30 27 27 27 28 30 31 30 32 33 33 31 28 24 24 26 28 30 27
60 61 62 64 67 72 77 79 81 81 78 75 71 72 75 67 59 53 48 45 42 37 32 30 29 26 25 26 27 28 29 29 32 33 34 32 27 23 22 24 26 28 24
62 64 67 70 72 74 75 74 72 74 73 71 72 76 70 60 54 50 45 42 39 34 30 28 28 27 25 26 27 27 27 29 31 32 32 33 27 22 20 22 23 25 22
68 70 72 72 72 72 69 70 69 71 72 73 74 76 66 56 50 46 43 40 37 30 28 28 27 26 25 25 25 26 27 28 29 30 30 30 27 23 19 19 20 22 22
71 72 72 71 70 70 68 68 71 72 74 72 73 73 62 54 48 43 40 38 36 30 25 26 28 27 25 25 25 26 27 27 28 28 28 29 29 23 18 16 18 19 20
71 72 71 69 67 66 67 71 72 72 72 73 74 68 58 53 47 42 39 37 35 31 25 26 26 26 24 24 25 26 26 27 26 26 27 29 28 25 20 15 16 17 17
71 68 65 67 67 68 71 74 74 71 74 76 72 64 56 50 44 41 40 36 34 31 28 27 26 25 24 24 24 25 25 26 26 26 26 28 27 26 20 15 13 14 15
70 68 70 69 71 72 75 74 76 79 79 73 65 59 53 49 44 41 40 37 34 32 28 27 27 26 24 24 24 24 26 26 25 24 24 24 24 24 22 16 12 12 12
68 68 70 72 74 76 76 79 82 83 81 69 60 53 50 47 43 41 40 37 34 32 30 27 27 27 26 25 25 24 25 26 25 23 23 21 21 22 22 18 13 10 9
69 71 73 75 77 78 82 84 82 77 72 63 58 52 47 46 42 40 39 37 33 32 32 30 28 27 26 26 25 24 24 25 23 23 22 20 19 20 20 20 15 11 9
71 71 74 76 80 84 85 81 74 68 63 56 52 50 46 46 42 39 37 35 32 31 32 34 32 30 28 26 26 24 25 25 23 22 21 20 19 19 19 18 18 13 10
72 74 78 83 85 82 76 69 61 57 55 53 49 46 44 43 40 37 35 34 32 31 29 29 28 28 27 26 26 26 25 25 24 23 21 20 19 19 18 17 16 15 11
77 82 85 83 77 71 64 61 58 56 53 50 47 43 41 41 37 35 33 32 30 30 29 29 29 27 26 26 25 25 25 26 25 24 23 21 20 19 18 17 16 15 14
84 85 78 74 67 64 63 60 56 53 51 49 46 42 40 40 36 33 31 30 29 29 29 28 29 30 28 28 28 27 27 26 26 26 24 23 22 20 19 18 17 15 15
81 77 71 67 66 61 56 52 49 47 45 44 43 41 39 38 36 33 32 30 29 29 28 28 28 30 28 27 28 28 28 28 28 28 27 26 25 23 21 20 19 17 15
74 69 67 64 58 51 45 43 44 44 44 44 44 42 40 38 36 34 34 33 30 30 30 29 27 27 26 25 26 27 27 29 30 30 30 29 28 26 24 22 20 19 18

GFSGL_500_spd_060.txt.gz
Wind_Speed
43 44 45 47 47 42 50 57 56 57 57 58 59 60 62 64 65 67 71 78 80 81 83 84 88 91 91 87 82 76 69 62 56 48 39 37 39 42 45 45 45 45 45
44 47 50 50 50 44 59 60 60 59 60 61 62 63 66 67 68 71 73 78 83 85 85 89 91 91 87 80 73 65 58 54 49 38 34 38 41 45 43 42 42 44 44
48 49 49 54 55 59 59 60 61 61 63 64 65 66 67 68 71 73 78 82 84 88 90 90 90 81 74 70 62 54 51 46 39 37 36 41 43 41 39 40 41 42 42
45 52 57 57 58 58 58 60 61 63 64 65 66 69 73 73 75 79 80 82 85 88 89 82 77 70 65 58 53 48 42 36 36 37 39 42 42 41 41 40 38 40 38
55 57 58 58 57 58 60 61 61 63 65 66 70 75 77 79 81 81 82 84 87 86 83 77 70 63 57 52 47 41 35 34 35 36 38 41 40 40 39 38 38 35 31
55 56 57 57 57 59 60 62 62 64 65 65 69 75 82 82 82 86 87 85 82 80 75 68 62 56 51 47 42 36 33 34 34 35 39 37 37 37 35 34 33 29 27
55 55 55 58 58 60 61 62 63 64 67 70 75 78 80 85 85 85 83 82 78 74 66 59 55 51 47 43 38 33 33 33 33 35 36 36 35 36 33 31 30 28 29
53 55 57 57 59 61 61 64 66 69 72 75 76 80 84 83 81 79 76 73 71 65 58 53 50 46 42 39 35 31 31 32 33 35 35 35 36 35 32 29 26 26 29
55 56 58 60 61 63 64 67 70 72 73 77 81 80 78 76 75 71 68 71 66 59 53 49 46 42 38 36 32 29 29 30 32 34 34 35 35 34 31 27 25 26 28
55 58 59 60 63 65 68 71 71 72 76 76 74 73 73 72 70 67 68 70 63 54 49 46 42 38 36 33 29 27 27 29 30 31 33 35 35 34 31 27 22 24 27
57 58 60 63 65 68 70 72 75 76 75 73 72 73 72 71 66 66 69 68 60 51 46 43 39 34 33 31 28 27 27 28 29 29 30 32 34 33 31 28 23 23 26
58 61 63 66 69 71 73 76 76 74 71 71 71 69 71 69 68 69 70 66 57 49 43 41 37 32 31 29 28 26 26 28 29 29 29 30 32 32 31 28 22 23 24
61 64 67 70 70 71 74 75 74 69 70 71 70 72 70 69 71 73 70 63 54 46 41 39 36 32 29 27 27 27 27 27 27 28 28 29 30 30 30 27 23 22 23
65 68 69 70 72 74 76 74 71 71 72 72 73 73 71 72 75 74 67 57 49 42 39 37 34 33 30 27 26 26 26 26 26 26 27 28 28 30 29 26 21 20 22
66 66 68 72 74 75 74 72 72 71 74 75 75 75 75 76 77 72 62 52 46 40 37 36 34 33 30 28 27 26 25 26 26 25 26 27 28 28 29 27 21 18 20
66 69 73 75 74 72 71 70 71 72 73 76 78 80 81 81 73 63 56 49 43 40 36 35 34 32 29 28 27 26 25 25 25 25 26 26 26 26 27 27 22 17 18
70 73 75 77 76 74 73 74 73 69 73 76 81 85 83 75 64 56 51 46 41 39 36 34 32 31 30 27 27 25 25 25 25 25 25 25 24 24 23 23 22 18 16
74 77 79 79 77 74 73 72 74 77 79 81 81 79 73 64 57 51 45 43 40 37 35 34 31 30 29 27 27 27 26 26 24 24 23 23 22 22 21 21 21 18 15
77 78 77 75 72 71 73 76 79 83 85 81 73 66 60 54 50 46 44 42 39 36 34 33 31 29 29 27 26 26 25 26 24 23 22 21 20 20 19 19 19 18 15
78 77 75 72 71 74 78 82 86 85 78 72 65 57 54 53 48 44 43 41 39 36 34 33 32 30 29 29 28 27 27 26 25 24 22 20 20 19 18 18 18 17 14
77 74 72 72 76 81 84 85 80 75 69 64 61 57 53 49 45 43 41 39 38 35 33 32 31 30 30 31 30 29 27 27 26 24 22 21 20 19 18 17 17 16 15
74 72 73 78 82 84 81 77 70 67 66 61 53 48 46 44 43 42 39 38 35 32 31 31 30 30 29 28 27 26 25 24 25 23 22 21 20 19 18 17 16 15 14
72 76 80 84 82 78 71 68 67 62 57 51 46 44 41 41 40 39 37 35 33 32 31 30 30 30 29 27 26 25 25 24 24 23 23 21 21 20 19 18 17 16 15
77 80 83 79 74 69 69 64 56 51 47 43 43 43 42 41 40 39 37 35 32 32 32 30 30 31 29 27 27 27 26 26 26 26 25 24 23 22 21 20 19 17 16
80 82 78 72 68 68 62 54 49 45 44 45 46 47 46 45 44 42 39 36 34 31 32 30 30 30 31 29 28 29 29 28 27 27 28 27 27 26 25 24 22 20 18
81 78 73 68 67 63 54 50 49 48 48 49 49 49 48 46 44 42 39 37 35 33 32 32 30 29 29 29 28 28 28 26 25 26 26 27 27 27 27 26 24 23 21

GFSGL_500_spd_063.txt.gz
Wind_Speed
44 47 47 45 47 49 51 49 50 57 56 64 64 65 67 68 68 69 69 72 75 80 84 87 88 86 87 91 88 85 80 75 71 65 59 54 52 48 44 43 44 46 48
46 43 42 43 45 48 53 50 55 58 60 61 64 67 67 69 70 72 74 76 78 81 86 87 89 94 90 87 85 79 72 67 61 55 50 47 42 41 42 43 47 47 44
39 43 44 44 52 55 59 58 59 60 63 64 65 66 69 71 73 75 78 81 84 85 88 92 91 91 88 84 76 67 62 58 55 50 44 39 38 40 42 46 46 42 41
38 45 47 51 59 60 59 59 61 63 65 65 67 68 70 73 76 79 81 82 84 88 88 89 87 85 79 73 64 60 56 53 50 45 39 36 38 40 43 45 42 42 41
43 48 52 60 59 59 59 60 63 65 65 67 67 69 72 75 78 80 82 86 88 86 85 82 78 73 69 64 57 54 52 48 44 39 36 35 37 39 43 42 40 38 37
42 54 58 57 58 59 60 62 63 64 65 67 69 72 75 77 79 82 86 84 82 81 76 69 69 68 64 58 53 50 48 44 40 36 34 35 36 40 39 38 38 36 34
53 56 56 56 57 60 61 61 63 64 67 70 72 75 77 78 81 83 81 76 76 73 66 66 68 66 60 54 50 47 44 40 37 33 32 34 35 36 34 36 38 36 34
54 54 55 57 58 60 61 62 64 66 70 72 75 76 78 81 81 75 72 73 72 68 66 68 68 64 56 50 46 43 40 38 35 32 31 32 33 33 35 36 36 33 33
52 54 56 57 58 59 60 64 67 70 72 73 74 76 81 79 73 71 71 72 72 68 69 71 68 60 52 47 44 40 37 37 34 32 31 31 31 32 35 35 34 31 29
54 55 57 57 58 60 63 67 71 72 73 74 76 79 78 72 71 71 73 74 70 69 71 72 65 55 47 44 41 37 36 36 33 32 31 31 31 32 35 36 34 30 29
54 56 56 57 60 64 68 70 71 73 74 77 79 79 76 73 72 73 75 71 70 71 73 69 60 51 44 41 39 35 34 33 32 31 30 30 31 32 33 36 36 31 26
55 55 58 60 64 67 68 70 72 74 77 78 79 76 73 74 75 74 71 72 74 76 72 63 54 47 42 40 38 34 33 32 31 31 30 30 30 30 31 33 35 34 28
55 58 60 64 66 67 69 71 75 78 78 78 76 75 75 75 73 73 73 76 79 75 66 56 49 44 41 39 37 33 32 32 29 30 30 30 30 29 29 31 34 33 29
57 60 63 64 66 68 72 75 78 80 79 79 77 76 74 69 71 77 79 80 74 65 57 50 45 42 40 38 36 32 31 31 29 28 28 28 29 28 29 30 31 31 29
61 62 63 65 68 70 74 77 79 78 77 76 73 72 75 76 77 83 82 74 62 54 51 46 43 40 38 37 35 32 32 30 28 28 27 26 27 26 27 28 29 28 26
62 63 65 68 71 75 78 79 80 79 76 73 73 78 81 84 85 81 75 64 54 47 44 41 39 38 36 35 33 33 32 31 29 26 26 26 26 26 26 26 26 25 25
63 67 70 72 76 79 83 85 86 79 73 74 78 82 86 84 76 64 63 57 48 46 44 40 36 35 34 34 32 31 32 32 29 28 26 25 25 25 24 24 24 24 24
67 71 74 77 80 83 85 82 78 79 80 78 80 82 76 71 64 57 53 53 50 47 46 39 34 32 32 32 31 29 30 30 29 28 27 25 23 24 22 22 22 23 22
70 74 77 79 82 84 81 78 78 80 84 83 78 72 67 63 57 51 47 48 47 44 41 37 34 31 30 31 29 27 27 27 27 26 25 24 23 22 21 21 21 21 19
74 77 79 81 83 80 78 77 79 82 79 75 70 70 66 56 48 44 41 41 40 38 36 35 33 32 31 30 28 27 27 27 27 27 26 24 23 21 20 20 19 19 18
77 79 81 82 79 77 76 80 81 76 72 68 67 62 54 48 41 37 37 38 36 35 35 33 32 31 30 29 28 27 27 28 28 27 25 24 22 21 19 18 18 17 17
79 80 80 77 74 75 80 80 76 71 66 66 60 52 48 43 41 38 37 37 36 32 33 33 31 30 30 29 28 28 28 27 27 25 23 22 21 20 19 18 17 17 16
79 78 74 71 74 78 80 77 73 68 66 61 53 50 48 46 45 45 44 41 41 38 33 33 32 31 31 30 30 28 28 27 27 25 23 21 20 20 19 19 18 17 17
74 71 70 73 76 80 78 76 71 66 62 53 50 50 50 49 49 49 48 47 44 42 39 34 33 32 32 31 31 29 29 28 28 26 24 23 23 22 22 21 20 19 18
70 69 72 75 79 79 78 74 67 63 55 51 51 52 51 49 48 47 47 46 44 41 39 37 33 32 32 31 31 32 30 29 29 28 26 26 25 25 24 23 23 22 21
68 70 75 79 79 78 77 69 61 55 50 52 54 54 53 50 46 42 40 38 36 32 32 33 34 32 32 32 32 30 29 30 31 29 27 26 25 23 24 24 24 24 24

GFSGL_500_spd_066.txt.gz
Wind_Speed
35 40 43 47 47 46 50 52 54 56 59 59 57 59 62 64 66 68 70 71 73 76 79 81 83 85 87 91 89 87 88 84 78 72 66 59 55 53 52 49 44 41 41
41 43 45 44 47 49 50 48 43 57 68 62 63 64 64 66 68 69 71 73 76 79 80 82 84 88 87 84 84 83 76 74 70 64 56 53 51 50 46 42 39 41 42
42 43 41 47 48 50 51 53 50 65 64 63 65 66 66 67 69 71 73 76 79 80 81 83 86 83 79 80 77 71 71 70 65 58 52 49 47 45 40 39 39 41 45
39 41 44 47 47 54 57 59 64 63 63 64 66 66 67 68 70 73 76 79 79 80 83 86 78 76 78 75 68 71 71 67 61 53 48 46 43 40 37 37 37 41 45
39 42 38 46 52 57 60 65 63 63 64 65 65 65 67 70 74 76 78 79 79 82 83 77 75 75 78 70 68 71 70 63 56 49 45 42 39 36 36 36 37 40 41
41 38 45 52 56 60 62 62 62 64 65 65 65 67 70 74 76 77 79 80 82 79 76 74 74 75 73 67 70 71 67 59 51 46 42 39 36 34 34 34 37 38 37
41 47 51 55 56 58 59 62 63 65 65 65 67 70 74 75 76 78 80 82 81 78 75 74 73 74 67 69 72 70 62 54 47 43 39 38 34 33 32 32 35 37 39
45 48 51 54 55 58 60 63 64 64 65 66 70 72 73 74 78 80 82 81 78 75 73 74 73 68 69 72 72 65 56 48 45 41 37 36 33 31 32 32 33 34 38
48 50 52 54 56 58 61 62 62 63 66 69 70 72 74 77 80 82 80 79 75 73 74 74 69 70 74 75 68 58 50 44 42 38 35 34 33 31 31 31 32 33 35
49 51 53 55 58 60 60 61 63 67 69 69 71 75 77 79 82 83 81 80 77 75 71 70 73 75 76 71 60 52 45 42 39 36 34 33 32 30 31 31 32 33 35
51 53 55 57 58 59 61 63 67 68 69 71 74 77 80 83 83 83 79 77 74 70 70 73 77 77 71 63 54 47 43 39 37 34 32 33 32 30 30 30 32 34 33
54 55 56 57 59 60 63 66 67 69 71 74 77 79 82 84 83 80 77 74 74 75 75 76 74 68 62 57 49 43 41 37 35 32 31 32 31 30 29 30 32 33 34
55 55 57 58 60 64 66 67 69 72 75 78 81 84 85 85 80 75 77 79 80 82 78 72 63 56 53 49 45 41 39 35 32 31 31 31 30 28 28 29 31 31 32
55 56 58 61 64 66 68 70 72 75 78 81 84 87 88 86 79 74 78 83 81 76 68 61 51 44 45 42 40 38 37 34 31 28 30 30 29 28 28 27 28 29 29
56 58 61 64 65 67 68 70 73 77 81 84 87 90 88 85 80 81 80 74 68 64 61 54 47 43 42 41 40 36 34 33 30 28 29 28 27 26 27 26 26 27 27
59 62 64 65 66 68 70 72 76 79 82 85 86 84 82 83 83 78 72 67 63 58 52 47 55 50 45 44 40 36 32 31 29 27 27 27 26 25 25 25 25 25 25
62 65 66 67 69 71 75 78 80 80 85 85 80 79 82 81 76 70 66 65 56 49 43 48 52 48 47 47 40 34 30 28 28 27 28 28 26 26 25 25 24 23 23
66 66 67 69 72 75 78 82 85 88 89 83 75 79 80 75 69 65 64 56 48 41 41 45 44 41 43 40 34 32 28 27 27 26 26 26 25 24 24 23 22 21 20
66 68 70 72 75 78 81 84 86 86 81 79 77 79 77 72 65 61 54 47 41 37 36 36 36 36 35 33 31 29 27 26 26 25 24 23 23 22 23 22 21 19 19
68 70 72 75 78 81 83 84 83 78 76 78 82 80 75 67 61 54 48 45 40 37 35 33 32 31 31 30 29 27 25 24 25 25 24 23 23 22 23 22 20 18 17
70 72 75 78 81 82 82 81 76 74 76 81 81 79 71 62 54 47 46 45 44 40 37 36 35 32 30 28 28 26 24 23 23 24 25 25 23 23 22 21 19 17 16
73 75 78 80 81 80 79 75 73 74 79 80 78 73 62 53 48 48 48 48 47 46 43 40 36 35 32 30 28 29 28 23 22 24 24 24 22 21 20 19 18 17 16
75 78 79 80 79 76 73 73 74 77 79 77 75 64 54 47 48 50 50 50 48 47 46 46 44 37 35 32 30 30 28 25 25 25 25 23 21 20 19 18 18 17 16
78 79 79 76 73 71 72 73 75 79 76 76 68 58 49 48 50 52 52 49 45 43 44 45 44 42 38 35 32 32 32 31 28 27 27 24 22 21 20 19 19 18 17
79 78 73 71 72 72 73 75 78 76 75 73 63 54 50 50 52 53 50 45 43 39 36 35 32 31 31 32 33 33 34 31 28 29 29 25 23 23 22 21 21 20 19
76 71 70 72 71 72 76 78 77 75 73 66 58 53 50 49 51 49 43 40 39 35 30 28 28 25 26 29 30 31 35 35 32 30 30 27 25 24 23 23 22 20 19

GFSGL_500_spd_069.txt.gz
Wind_Speed
31 33 35 37 39 36 33 44 42 49 51 51 49 59 62 71 67 67 68 69 69 71 73 75 77 78 78 80 82 83 82 81 81 76 68 72 72 67 61 53 48 45 43
36 36 39 39 35 35 40 41 52 46 50 55 61 63 70 67 68 69 70 71 71 73 76 76 76 78 80 81 80 78 77 77 79 67 69 71 69 62 55 48 45 42 39
35 37 36 30 33 34 44 41 40 50 58 62 66 70 67 67 69 70 70 71 73 76 76 77 78 80 81 79 78 75 75 76 70 67 70 70 63 56 50 45 42 39 37
33 30 33 30 34 41 51 41 43 61 66 69 69 66 68 69 70 70 71 74 75 75 77 79 81 81 79 77 76 74 75 71 66 69 72 67 58 51 46 41 38 36 35
33 34 33 36 40 43 45 45 61 66 66 69 68 68 69 69 69 71 74 74 75 77 79 81 81 81 78 76 74 73 72 67 69 72 70 62 52 47 42 39 36 33 34
33 34 37 39 32 43 52 58 63 68 66 66 67 68 68 69 71 74 74 75 77 79 81 83 84 82 78 75 74 71 68 70 72 72 65 55 48 43 40 36 34 33 32
33 37 41 43 44 48 51 55 59 61 63 65 66 67 69 70 73 74 75 77 79 81 84 86 84 80 77 74 70 68 71 73 73 69 58 49 43 41 36 34 33 33 33
36 39 42 45 48 51 54 58 61 62 63 64 66 67 70 72 73 75 77 79 82 84 86 86 82 78 73 72 71 72 74 73 69 62 52 45 41 38 34 33 32 31 33
40 43 46 49 52 54 56 57 59 61 63 65 66 69 71 72 75 78 80 82 85 87 88 84 79 75 74 76 76 76 74 68 63 54 47 41 38 35 32 31 31 31 30
42 46 49 52 53 55 57 59 60 62 63 65 68 70 72 75 78 81 84 86 89 91 88 80 76 79 79 79 77 71 65 60 53 46 41 38 35 33 30 30 30 30 29
45 48 51 53 55 57 58 60 61 63 65 68 70 71 74 77 80 84 87 91 93 90 85 78 77 81 78 71 66 61 57 51 44 39 36 35 34 31 28 28 28 28 28
49 52 54 55 56 57 59 61 63 65 68 70 71 74 77 79 82 84 87 90 89 86 82 80 76 73 68 62 57 52 47 44 39 36 32 32 33 29 26 27 27 27 28
52 54 55 56 57 59 60 62 66 69 70 72 75 76 78 82 84 88 91 89 84 83 81 77 71 64 61 57 51 42 39 41 39 34 30 30 31 27 25 26 26 27 28
54 55 56 57 58 59 62 66 68 71 73 75 78 79 81 84 89 93 93 89 82 78 76 71 64 61 55 49 44 47 43 40 40 34 30 29 29 27 25 25 25 26 27
55 55 56 56 58 62 66 68 70 72 74 77 79 82 85 88 92 93 89 83 80 77 71 64 60 51 44 38 45 48 51 46 39 35 30 28 26 25 25 24 23 24 24
55 56 56 57 61 65 68 70 71 73 76 78 82 85 88 90 90 86 81 81 80 75 66 58 51 44 37 37 43 49 48 41 37 33 29 27 23 23 23 23 23 24 24
56 56 57 61 66 69 70 71 71 73 76 79 83 85 88 89 84 80 80 79 77 67 56 48 43 40 37 38 41 41 38 35 32 29 27 26 23 22 23 23 23 23 22
56 59 63 67 72 73 74 73 74 76 78 81 84 86 86 83 78 79 78 76 67 55 45 42 40 38 37 35 36 35 34 31 29 26 25 24 22 22 22 22 21 21 21
61 65 69 73 76 76 75 75 77 79 82 84 85 83 79 75 77 78 75 70 56 44 40 41 40 39 38 35 34 32 31 29 26 24 24 24 23 21 22 21 20 20 20
67 70 74 78 78 77 76 78 80 82 84 84 82 79 73 72 74 71 70 62 48 44 43 43 42 39 40 38 35 32 30 27 25 23 23 23 21 21 22 21 20 19 20
72 75 78 78 77 77 78 80 82 83 82 79 77 74 73 75 73 69 66 56 47 45 45 46 46 44 39 40 37 34 29 28 25 22 22 22 25 22 21 21 20 19 19
77 78 78 77 78 79 80 82 82 80 76 75 73 74 76 75 72 69 63 54 48 46 47 47 46 44 42 39 36 34 32 29 27 24 22 23 21 22 22 20 19 19 18
79 79 78 79 80 81 82 81 78 75 73 75 74 76 77 74 72 67 59 53 49 48 48 46 42 40 40 40 39 35 34 32 29 26 24 23 22 21 21 20 19 18 17
78 78 79 80 81 81 80 77 74 72 74 75 77 78 75 74 69 61 55 51 49 47 46 43 40 38 35 35 39 40 35 34 32 31 28 27 23 23 22 21 19 18 17
78 80 81 82 81 79 76 73 72 74 76 77 79 77 75 71 63 57 52 50 47 45 43 41 38 35 31 25 25 27 30 32 33 33 32 29 25 24 24 22 21 20 19
82 83 83 81 79 75 73 73 75 77 78 79 77 76 71 64 57 53 49 47 44 42 41 38 35 32 27 24 24 24 26 31 30 32 32 31 27 25 24 24 22 21 21

GFSGL_500_spd_072.txt.gz
Wind_Speed
29 31 34 36 39 40 39 35 35 35 37 43 43 53 42 51 61 65 70 72 72 71 72 72 72 75 77 77 79 80 82 84 86 82 79 77 75 69 67 70 71 66 57
32 36 39 39 40 38 38 35 31 34 42 47 57 56 56 57 71 70 74 72 71 72 71 72 75 77 77 78 80 82 84 86 86 82 76 74 72 66 68 70 70 61 52
41 42 39 38 38 40 34 29 33 41 52 59 62 48 56 75 75 77 74 72 72 72 73 76 76 78 79 81 83 86 88 88 82 79 74 69 66 69 70 71 66 54 49
38 40 40 37 37 35 32 32 41 47 50 53 56 64 74 74 73 73 73 73 73 73 76 76 78 79 81 83 86 89 90 85 78 74 70 67 69 71 72 68 59 50 45
39 39 38 36 38 38 38 39 40 51 52 53 63 72 74 72 72 72 72 73 73 76 76 78 80 82 83 86 89 90 87 80 74 71 71 73 73 73 70 62 53 45 41
36 36 36 37 36 39 42 43 41 48 52 60 66 64 68 70 70 70 71 72 75 76 77 79 82 85 87 89 90 88 81 75 75 76 76 76 73 68 62 55 47 41 38
34 35 36 38 39 40 42 45 48 52 54 58 62 65 67 68 69 70 72 73 75 77 79 82 84 87 91 93 92 86 78 77 78 77 75 70 65 59 54 47 42 39 35
34 35 36 38 40 42 45 49 52 55 58 61 63 64 65 68 69 71 73 74 76 78 81 84 86 90 94 93 88 81 79 79 74 70 65 61 56 51 46 41 37 36 32
34 36 39 41 43 46 49 52 56 58 60 61 63 65 65 67 70 73 74 76 78 80 83 86 89 92 93 89 83 79 76 71 67 62 58 53 47 44 40 37 34 33 30
37 39 42 44 47 50 53 56 58 60 61 62 63 64 66 68 71 73 76 79 80 83 85 88 92 93 88 83 81 77 70 64 61 56 52 44 41 39 36 33 32 30 29
41 43 46 48 51 54 56 58 59 60 60 61 62 65 68 70 72 74 77 81 83 85 88 91 92 89 82 78 77 71 64 61 57 51 45 40 37 36 33 30 30 29 28
44 47 49 52 54 56 58 60 60 60 61 61 63 66 69 72 74 76 78 80 84 87 90 92 89 82 79 75 71 64 58 55 49 42 38 36 38 35 31 29 28 28 26
50 52 53 55 57 59 60 60 61 61 60 61 65 69 73 77 78 78 79 81 85 89 92 90 82 79 77 73 62 55 51 46 41 44 41 39 39 35 31 29 27 27 25
51 53 56 59 60 60 60 61 62 61 63 67 71 76 79 81 79 80 82 85 88 91 91 83 78 75 73 64 53 47 45 41 39 41 42 43 41 35 30 29 26 26 24
55 57 58 59 60 61 62 62 61 64 68 72 76 79 82 81 80 83 86 88 90 89 83 78 76 72 66 52 44 42 40 36 37 41 41 43 37 30 28 28 26 25 24
58 58 58 59 62 63 62 61 65 69 73 76 80 82 82 82 83 85 87 87 85 81 75 75 71 68 54 43 40 39 37 36 35 34 35 33 29 25 26 25 24 24 24
57 58 60 63 65 63 63 66 70 73 78 81 83 83 82 83 84 85 85 84 80 75 75 71 68 61 48 42 40 39 38 35 36 35 30 30 27 25 24 25 23 23 22
56 58 63 65 63 64 67 71 75 80 82 83 82 81 82 84 85 85 83 80 75 74 73 69 65 57 48 43 41 41 39 38 35 34 30 28 26 24 23 22 22 22 22
59 63 63 64 66 68 71 76 80 83 84 83 83 83 84 85 84 82 78 76 74 74 70 67 63 55 48 45 43 42 41 39 36 33 29 27 25 24 23 24 23 22 21
63 64 65 67 69 72 76 81 84 86 85 83 83 85 85 84 80 76 74 75 75 73 69 66 59 53 47 44 43 41 40 40 37 33 29 26 25 24 24 23 22 22 21
65 68 69 71 74 78 83 86 86 85 84 84 85 85 83 79 75 74 75 76 74 72 70 63 55 50 45 43 41 39 38 39 38 32 29 27 26 25 23 21 22 22 21
69 71 73 77 80 84 87 87 86 85 85 85 85 82 77 74 75 76 77 76 74 73 64 56 51 47 43 41 39 37 37 38 37 32 31 29 25 24 22 24 22 20 20
74 77 80 83 86 88 87 86 86 86 86 84 79 75 74 76 78 78 77 76 74 66 57 51 48 44 40 38 37 35 34 36 35 33 34 31 26 24 22 22 22 20 20
80 83 86 88 87 87 87 87 87 85 82 77 75 77 78 78 78 78 77 72 64 57 52 48 44 40 38 36 35 33 31 34 39 36 36 34 29 27 24 23 22 21 20
87 89 89 88 88 88 89 87 84 80 78 79 79 79 79 79 79 76 69 62 57 52 48 43 39 37 35 34 32 30 26 25 38 42 36 35 35 32 26 24 24 23 22
89 89 90 90 90 88 85 82 81 81 81 81 80 80 80 78 73 65 60 56 51 46 41 38 37 35 32 31 29 26 23 20 17 32 40 38 39 35 31 25 25 24 23

GFSGL_500_spd_078.txt.gz
Wind_Speed
26 26 28 27 31 30 31 35 34 37 42 42 44 43 45 38 49 48 48 48 59 64 62 62 70 77 79 80 77 77 76 75 76 74 77 78 80 83 86 88 90 89 85
30 30 30 33 34 34 36 37 37 39 40 42 45 38 44 39 40 46 56 56 63 66 75 73 79 74 76 76 76 75 72 73 77 78 79 81 84 87 88 90 89 87 81
37 33 31 40 37 36 38 40 39 39 41 44 45 42 41 38 44 47 50 60 55 63 68 70 71 73 72 72 71 70 72 75 78 81 81 82 86 88 90 89 86 85 75
36 37 37 32 37 40 37 35 37 41 41 41 41 42 43 45 47 49 53 56 58 62 66 68 69 68 69 68 67 70 73 76 79 81 84 86 89 88 88 85 83 77 71
30 32 35 35 35 36 37 39 38 41 42 43 42 44 46 49 51 54 57 60 62 65 66 67 68 67 66 66 70 72 75 78 80 82 84 88 89 87 86 83 79 75 66
34 33 34 35 38 40 39 39 40 40 43 44 47 48 51 54 56 59 61 63 65 66 66 67 67 66 68 70 73 75 79 82 84 86 89 90 88 86 85 79 75 68 61
33 34 34 35 39 39 39 37 40 43 45 47 50 52 55 58 60 62 63 65 66 65 66 66 66 68 71 73 75 78 81 84 87 89 91 90 87 82 78 73 66 58 51
33 32 33 34 36 38 39 42 44 46 48 51 54 57 58 60 61 62 66 65 64 66 68 67 69 70 73 77 79 82 85 86 87 90 89 87 82 76 70 65 57 50 43
35 34 34 36 38 40 42 44 47 50 53 56 57 60 61 61 63 64 64 64 66 69 69 68 71 74 78 81 83 85 86 85 87 87 85 81 77 70 64 55 49 45 36
36 36 36 38 40 43 45 47 50 53 56 58 60 60 62 64 65 65 65 67 70 70 69 71 74 77 81 84 87 88 88 87 88 85 82 77 70 63 56 49 44 38 37
36 38 39 41 44 46 48 51 54 57 59 59 60 63 65 65 64 64 67 71 71 70 73 75 77 81 84 87 89 89 89 89 86 83 79 71 63 57 50 44 39 36 39
39 42 44 45 48 51 54 57 58 60 61 61 63 64 65 65 65 67 68 69 71 73 75 77 80 84 87 89 90 89 89 87 81 78 74 65 60 54 46 42 36 32 35
45 47 49 51 52 54 56 57 60 62 64 66 65 64 66 66 68 69 68 69 73 76 79 81 85 88 91 91 88 88 86 81 78 75 67 60 57 51 44 38 33 34 36
49 50 52 54 57 60 59 61 65 68 68 67 66 65 65 67 72 70 72 74 77 80 83 86 89 91 91 88 87 84 80 77 76 71 63 59 56 49 41 35 33 34 35
49 51 53 58 60 61 62 65 66 67 66 65 64 66 68 72 73 74 77 80 82 84 87 90 92 91 89 88 84 79 76 75 71 67 63 60 54 46 39 34 34 35 32
54 56 57 56 59 63 65 67 64 64 62 64 67 70 73 76 78 80 82 84 86 89 92 94 93 92 88 84 79 76 74 71 67 65 61 52 49 42 39 36 35 35 30
57 58 58 58 62 64 60 60 60 62 64 68 71 74 78 80 81 83 84 88 92 95 94 94 91 87 83 80 78 75 71 68 66 62 53 41 45 44 42 39 33 31 27
57 55 54 55 60 62 64 68 68 68 70 72 74 77 79 79 82 87 90 94 95 94 93 90 87 84 81 78 76 74 71 68 62 53 45 41 42 45 42 38 32 31 27
53 52 57 59 60 63 66 68 70 73 75 77 80 81 82 84 89 94 96 95 94 92 90 88 84 81 79 77 75 74 69 62 52 44 41 38 37 38 37 36 31 28 26
58 61 61 59 63 67 70 73 75 77 78 80 82 85 89 93 95 95 95 94 93 90 87 84 81 80 78 76 73 68 60 52 46 41 38 34 34 34 32 27 27 26 24
63 62 64 63 67 72 75 76 77 79 82 86 90 93 95 95 95 94 94 92 91 87 85 82 80 77 75 71 65 58 52 47 42 37 33 31 30 30 30 24 26 24 24
64 66 67 70 72 75 78 80 82 86 90 93 96 98 98 98 97 95 92 89 88 85 83 80 77 73 68 62 57 51 47 42 37 32 30 28 27 29 27 24 28 26 27
66 70 73 76 79 81 84 88 91 94 96 98 99 98 98 96 94 91 88 86 85 83 80 76 71 65 60 54 50 45 40 36 32 29 27 26 27 28 30 26 23 25 21
71 75 78 81 84 88 92 95 98 99 99 99 98 96 93 90 87 86 86 86 84 79 74 67 61 56 51 47 42 38 34 31 29 28 26 25 25 27 34 34 32 26 23
77 81 86 89 92 95 97 98 99 99 99 96 93 89 87 86 87 87 86 83 77 70 62 57 52 47 42 38 35 33 31 29 28 27 25 24 24 27 38 36 33 30 26
86 89 92 94 96 97 98 98 97 94 90 88 87 87 87 87 86 84 79 72 63 56 51 47 42 38 35 33 32 30 29 28 26 25 24 23 22 24 40 35 32 33 29

GFSGL_500_spd_084.txt.gz
Wind_Speed
15 16 18 20 23 25 24 25 29 33 30 32 30 31 34 35 35 35 33 34 38 39 37 38 43 46 48 49 52 54 58 60 61 59 58 60 62 63 65 68 70 73 76
20 18 19 23 24 30 32 32 35 37 37 28 28 29 31 34 37 34 33 38 42 40 41 43 45 48 51 55 58 59 61 63 61 61 61 62 63 65 68 71 74 78 80
22 22 22 24 27 32 35 33 37 46 29 34 30 30 34 36 34 38 41 43 43 45 45 47 50 54 56 59 60 62 63 63 63 64 64 64 65 68 71 74 77 80 83
21 22 24 26 28 28 31 29 40 30 34 36 32 34 37 38 41 43 41 45 45 47 49 50 54 58 60 63 65 66 66 66 66 67 68 66 67 70 74 77 78 82 86
24 25 23 24 28 30 30 27 33 33 33 33 35 37 39 39 42 42 43 46 48 51 50 57 62 64 67 68 68 69 68 67 67 68 69 69 70 73 76 79 82 86 89
26 25 25 27 28 29 32 34 34 34 35 37 37 39 39 42 41 43 48 51 52 53 55 61 64 66 69 71 72 71 71 71 70 72 72 73 73 77 79 83 87 91 93
28 28 28 30 30 32 33 35 37 39 39 40 40 41 41 43 45 49 52 48 58 60 62 63 65 68 70 72 74 71 72 72 73 73 74 75 78 82 85 87 91 93 92
29 30 31 32 33 34 36 37 39 41 42 42 43 44 48 50 51 54 55 57 61 63 63 66 71 72 71 70 70 70 71 73 75 77 78 79 82 84 88 91 92 91 87
31 31 32 33 34 36 37 38 39 40 41 44 47 50 51 55 57 59 61 62 65 67 70 73 73 72 71 71 70 71 73 75 78 79 81 82 83 87 91 93 90 89 84
35 36 35 35 36 37 39 41 42 43 44 47 49 53 57 59 62 61 63 64 66 68 71 73 74 72 70 72 74 76 77 79 81 82 82 84 88 90 92 91 89 86 81
37 37 36 37 38 40 42 44 45 46 49 52 56 60 62 61 62 64 67 69 70 72 73 73 72 71 72 75 78 80 82 84 84 84 85 89 92 94 92 89 87 82 76
40 40 40 40 41 43 45 47 48 51 54 55 56 58 61 64 66 67 70 73 72 72 71 70 72 73 75 78 82 85 86 86 86 88 91 94 95 94 90 86 81 75 70
41 43 42 42 44 47 48 50 52 54 55 56 59 62 65 68 69 71 70 70 71 71 71 73 75 78 81 83 85 87 87 89 91 94 96 97 94 90 85 79 73 69 65
42 44 45 47 49 49 52 54 54 55 58 59 63 66 69 69 67 68 70 70 71 74 76 78 81 82 84 87 88 89 91 94 97 98 98 94 89 84 78 74 69 64 62
42 44 48 49 51 50 52 53 55 59 62 65 69 71 68 66 67 70 72 74 77 81 84 86 86 87 88 88 89 92 95 97 99 98 93 88 83 77 72 69 66 60 56
44 46 51 51 51 55 54 57 61 64 68 68 66 63 64 68 73 76 78 80 82 84 84 86 88 89 90 92 95 96 98 98 94 90 86 82 77 74 70 66 61 54 48
47 48 51 54 58 59 61 64 66 64 61 62 64 66 70 74 77 79 80 80 82 85 88 89 91 94 95 97 98 98 95 91 88 84 80 78 76 72 68 62 54 47 41
52 54 56 58 62 65 63 59 60 62 63 65 66 69 73 76 79 80 82 85 89 92 94 95 96 97 98 98 96 93 88 84 82 80 79 76 73 70 64 56 46 40 38
50 54 58 57 55 56 61 64 62 63 65 69 71 72 75 78 82 85 89 92 94 96 97 98 98 97 96 93 89 86 84 82 81 78 77 74 70 64 54 45 38 36 35
52 53 55 61 64 61 63 65 68 70 72 74 77 80 83 86 89 92 95 97 98 99 99 98 97 94 91 87 85 83 82 80 78 76 73 68 60 50 43 38 34 33 32
60 61 61 61 64 66 69 70 73 75 78 80 83 87 90 93 95 97 98 99 99 98 96 92 90 87 86 85 83 81 79 78 75 71 63 55 47 41 36 33 31 30 31
59 61 62 64 67 69 72 75 77 80 84 87 90 93 96 98 98 99 98 96 94 91 89 87 86 86 85 82 80 79 76 71 65 57 49 42 37 34 31 28 26 26 27
60 63 66 68 71 74 76 80 83 87 90 93 96 97 97 97 97 95 92 90 89 88 87 87 85 83 82 80 76 71 64 57 50 43 37 33 30 27 25 24 23 23 24
65 68 70 72 75 79 83 87 90 93 95 96 96 96 95 92 90 90 90 89 89 89 88 85 83 80 74 67 62 55 48 43 37 33 29 27 25 23 22 22 22 22 24
69 72 75 79 83 87 90 92 94 95 95 95 92 90 89 90 91 91 91 90 88 86 84 79 72 64 57 51 45 41 37 33 29 25 23 23 23 21 20 21 22 23 28
75 78 83 87 90 92 94 95 94 92 90 88 88 89 91 92 91 89 88 86 81 74 66 59 53 46 41 37 34 31 28 25 23 21 20 20 20 20 20 20 22 24 29

GFSGL_500_spd_087.txt.gz
Wind_Speed
17 14 13 15 16 19 19 22 24 29 33 34 37 39 37 33 37 30 38 37 38 39 37 38 42 43 43 46 47 48 52 56 57 57 59 61 63 64 64 65 65 66 66
21 18 14 17 20 23 24 26 29 33 37 41 43 43 38 36 40 38 39 40 40 38 42 47 46 45 47 48 50 52 54 56 58 59 61 64 65 66 67 67 67 68 69
21 21 18 21 23 25 28 28 32 35 39 37 59 42 34 36 34 38 40 41 43 46 47 47 47 49 51 53 54 55 58 60 61 63 64 66 68 67 68 69 69 70 72
17 19 20 21 24 27 30 31 35 38 35 29 29 26 28 32 36 39 44 43 42 46 47 46 49 52 56 57 58 58 61 62 65 67 67 68 68 68 68 69 71 72 74
20 20 22 24 26 27 29 31 33 33 34 33 33 31 34 36 37 40 42 43 44 47 52 44 55 57 58 59 60 62 64 68 70 70 70 71 69 68 70 73 76 77 79
23 22 24 27 28 29 30 32 34 35 33 33 37 36 38 40 41 41 42 43 47 42 51 61 63 59 61 65 66 68 71 71 71 72 73 70 69 72 76 79 82 83 82
25 26 27 28 29 30 32 33 35 36 36 37 37 39 39 39 40 44 45 48 51 49 51 65 65 63 66 69 71 71 73 74 75 75 71 71 75 78 80 82 85 85 86
30 32 31 30 30 31 34 36 38 38 40 41 41 41 41 43 46 47 51 48 46 63 63 64 67 67 71 74 74 74 76 76 77 75 75 76 78 81 83 85 87 88 88
35 37 36 35 35 36 37 38 40 41 42 42 44 46 45 49 51 52 52 58 60 63 64 69 71 73 74 74 77 78 78 77 75 76 78 79 81 84 87 88 88 90 90
36 37 38 39 39 40 40 41 42 44 45 46 49 50 51 52 54 55 58 62 65 69 71 72 73 76 76 78 79 77 76 75 77 79 80 82 86 88 89 89 90 92 93
37 39 41 42 42 42 44 46 48 48 48 51 53 54 55 56 58 60 64 67 68 70 72 75 77 78 79 78 79 79 80 80 81 83 85 87 89 89 88 90 91 94 94
37 39 41 41 42 45 48 50 51 52 54 56 57 58 60 61 63 66 67 68 71 74 78 78 77 76 76 79 82 82 84 86 88 90 89 88 89 89 90 92 94 96 94
41 42 44 46 48 49 50 51 52 54 56 57 57 58 61 64 67 68 70 75 78 80 78 77 77 79 82 84 86 88 89 91 89 89 91 91 90 91 93 94 96 90 86
43 46 50 51 51 51 51 51 53 56 58 59 60 64 66 67 69 72 76 77 75 74 74 78 81 84 87 90 91 89 89 91 94 94 92 92 93 95 97 94 89 84 78
48 52 51 53 53 51 52 53 56 60 59 60 65 69 69 71 73 74 72 73 75 77 80 83 86 89 90 90 91 93 96 97 96 95 95 97 98 97 93 88 83 78 75
49 50 51 52 52 54 57 59 60 62 65 67 69 69 69 67 67 70 73 75 76 79 82 86 89 91 94 95 97 98 98 98 98 99 99 98 95 91 85 82 80 77 72
46 46 46 47 50 53 55 58 60 62 65 69 68 67 70 71 73 74 77 79 82 85 87 90 93 95 97 99 101 101 101 100 99 98 96 92 88 84 82 79 76 72 69
46 46 47 48 49 52 56 59 62 65 66 70 72 70 72 76 78 79 81 85 88 90 93 96 98 100 101 101 101 100 99 97 95 92 89 87 85 82 79 76 73 69 64
46 45 46 49 53 56 60 63 66 67 67 69 73 75 79 81 83 86 88 91 94 96 99 101 102 102 101 100 99 97 94 92 90 88 87 85 82 79 75 73 68 61 51
47 48 52 58 58 60 61 64 67 69 71 74 78 80 83 86 89 92 95 98 100 102 103 104 103 102 99 96 94 92 90 89 88 86 84 81 78 75 71 64 55 45 37
50 56 61 62 62 63 65 67 70 74 77 80 82 85 89 92 96 98 100 101 102 103 102 100 97 95 93 92 92 90 89 87 85 82 78 75 70 64 57 48 39 33 29
58 62 62 63 65 67 70 73 76 79 82 85 89 92 95 97 99 100 101 101 100 98 95 94 94 94 94 93 91 88 85 81 78 73 67 60 53 47 40 34 29 27 25
62 63 65 68 70 72 75 78 81 85 89 92 95 97 98 100 100 100 98 97 96 97 97 97 95 92 90 87 84 80 74 67 61 55 48 42 37 32 28 25 23 22 21
64 67 69 71 74 77 80 84 88 91 93 96 98 99 99 98 96 96 96 96 96 94 92 90 87 84 80 74 67 60 53 46 41 37 33 29 27 25 21 20 19 18 19
67 70 72 75 79 83 87 89 92 95 96 96 95 94 93 93 93 91 89 88 86 84 81 77 71 64 56 49 43 38 34 31 28 25 23 22 22 20 17 17 17 18 19
70 73 77 81 84 87 90 92 93 91 90 89 89 88 86 84 83 81 78 73 68 63 58 51 44 37 33 29 26 24 23 21 20 17 17 18 18 16 15 16 17 18 19

GFSGL_500_spd_090.txt.gz
Wind_Speed
21 22 23 22 20 17 16 19 20 22 22 23 26 30 32 37 44 45 49 48 48 46 41 40 40 41 43 46 51 52 48 47 50 50 53 56 59 60 61 63 65 66 66
25 24 24 24 22 18 20 22 22 22 24 26 28 34 41 48 51 55 42 52 40 47 43 42 43 45 50 51 49 48 49 52 55 56 57 59 60 62 65 67 68 68 67
23 23 21 20 16 19 20 22 24 26 28 30 31 41 25 30 26 35 48 38 41 44 47 49 49 50 52 51 52 48 52 58 59 61 61 63 64 67 70 69 69 70 68
20 20 19 18 18 19 23 25 26 27 29 33 32 33 33 30 27 28 28 33 40 45 48 50 51 50 51 55 47 54 60 65 64 64 67 69 70 71 72 72 72 70 68
19 20 22 22 22 24 26 28 29 30 31 34 37 39 36 35 35 35 37 41 43 45 47 47 48 50 56 60 50 62 67 71 68 65 69 74 74 76 76 75 73 70 69
24 23 24 25 25 27 28 30 32 34 35 37 39 40 41 41 41 39 43 43 44 45 46 48 51 52 56 50 57 65 70 68 70 75 77 77 78 77 77 76 74 74 74
30 29 29 29 30 30 33 35 36 36 38 39 41 41 41 42 43 43 44 44 47 45 53 52 55 45 58 61 67 70 70 77 72 74 78 79 80 78 77 77 78 79 80
33 33 33 34 35 36 36 36 37 39 40 40 41 43 45 46 47 47 48 47 40 49 55 51 54 63 72 68 66 70 72 74 75 80 83 81 80 78 80 82 83 84 84
28 31 33 34 37 38 38 38 39 40 42 43 46 49 50 51 51 51 51 52 51 55 66 61 64 66 70 72 74 75 72 78 81 83 81 82 82 83 85 86 87 88 87
29 31 33 35 37 38 39 40 42 43 46 48 50 52 53 54 55 55 57 59 59 62 66 67 68 69 76 74 74 77 77 79 84 84 84 85 85 86 89 91 90 89 89
32 33 35 36 38 39 41 44 46 47 49 51 54 55 57 58 59 60 62 61 63 66 69 71 74 76 79 79 76 79 80 83 84 84 87 87 88 90 91 90 89 89 88
37 37 39 40 42 44 46 48 50 52 54 56 58 58 59 59 59 62 65 66 67 69 72 74 75 76 77 78 84 85 85 87 88 91 92 92 93 93 92 91 90 89 90
43 44 45 46 47 47 47 49 53 56 58 58 58 59 59 61 63 65 66 69 72 74 74 75 76 77 80 82 86 88 88 90 92 93 95 96 95 95 94 92 91 90 89
43 43 43 43 45 48 52 54 54 55 56 58 60 61 63 65 67 69 69 70 71 72 73 75 78 81 84 86 87 89 91 93 96 97 98 98 97 95 94 94 94 94 92
43 43 45 48 50 51 51 53 54 55 56 57 60 63 65 65 66 67 67 69 73 78 81 82 83 85 88 91 92 93 96 98 99 101 101 101 101 100 100 98 96 95 91
46 46 48 49 50 51 52 52 52 53 54 55 58 61 64 67 70 73 76 78 80 79 81 85 88 90 92 94 96 99 101 103 104 105 105 105 102 100 98 95 93 90 85
49 49 48 46 48 50 51 51 49 48 52 57 61 65 69 72 73 73 76 78 80 83 87 91 93 96 100 102 105 106 107 108 107 106 105 103 99 96 93 90 87 84 81
42 44 46 47 46 47 48 49 51 56 61 62 64 66 68 70 73 76 79 83 87 91 95 98 101 104 107 109 110 109 109 107 105 103 99 97 94 91 89 87 85 82 78
46 46 45 46 47 50 52 54 58 64 65 67 68 71 74 77 80 83 87 91 95 99 102 106 108 110 111 112 111 109 106 102 100 97 96 94 92 89 87 83 79 75 70
47 50 49 50 52 55 59 63 67 69 71 72 74 77 80 84 89 93 97 100 103 106 107 109 111 112 110 107 104 103 101 100 98 96 93 90 87 83 79 74 69 64 57
50 48 50 54 58 62 66 69 71 73 75 78 81 85 89 93 97 100 102 104 106 108 108 108 106 105 104 103 101 99 97 94 91 88 84 80 75 69 65 58 51 44 37
45 49 54 59 64 69 71 73 75 78 81 85 89 92 97 100 102 104 105 106 106 105 104 104 103 101 99 96 93 90 87 83 78 73 66 61 55 50 44 39 33 29 24
49 54 61 65 68 71 73 76 80 84 87 91 95 98 100 101 102 101 100 100 100 98 96 93 91 88 84 80 75 70 65 59 54 49 43 39 36 33 28 24 20 19 16
57 61 64 67 70 73 77 81 85 90 93 95 97 98 98 96 95 95 93 90 88 85 81 74 68 63 59 55 51 46 41 36 32 29 26 24 24 21 17 15 13 13 13
61 64 67 71 74 79 83 87 90 92 94 94 93 91 90 90 87 84 80 75 69 63 58 53 47 43 39 34 30 27 24 22 19 18 17 17 16 13 10 10 10 11 11
64 68 72 76 80 84 87 89 91 90 88 85 85 84 81 78 73 67 60 54 49 45 42 38 35 32 29 26 24 21 19 17 15 13 13 12 11 9 8 8 9 10 12

GFSGL_500_spd_093.txt.gz
Wind_Speed
18 18 17 16 18 18 18 18 18 15 17 17 20 22 25 28 32 35 39 42 45 48 52 57 55 56 45 50 52 46 47 49 52 52 53 51 50 52 57 63 65 64 63
23 21 20 20 22 27 22 22 20 18 19 21 24 26 29 31 36 36 41 49 46 52 55 56 51 53 53 50 45 48 52 52 53 55 59 57 55 60 65 68 66 67 72
25 23 21 21 20 22 25 22 21 20 22 26 27 29 29 33 30 38 37 29 31 33 35 41 43 44 49 53 53 57 55 56 56 60 58 56 59 68 70 69 68 70 74
26 25 22 20 20 17 18 21 24 26 27 28 30 31 29 33 33 35 36 37 37 37 38 38 41 46 51 46 58 55 56 60 62 64 60 58 65 71 71 75 71 77 84
21 23 25 22 21 20 21 22 25 28 29 31 32 33 35 37 38 40 40 39 40 42 45 46 50 51 57 58 55 52 58 59 65 66 62 71 73 77 68 78 82 80 83
21 22 25 26 25 26 26 26 28 30 31 33 36 38 40 41 41 42 43 42 43 44 45 46 49 53 61 59 48 54 49 61 65 65 72 75 71 78 81 80 81 83 85
25 26 29 31 31 30 31 33 33 33 35 37 39 40 42 43 43 44 46 48 47 49 50 49 49 51 49 53 59 50 63 58 69 67 77 74 77 82 77 79 83 87 85
26 27 29 32 36 36 37 38 38 38 38 39 40 42 44 45 46 48 50 50 51 52 54 55 55 54 52 58 71 73 70 74 75 75 81 82 78 78 79 83 85 88 89
21 23 24 27 30 32 35 38 39 41 41 41 43 45 47 49 50 51 54 56 57 57 58 58 59 60 59 60 64 71 73 74 74 75 83 82 82 83 89 92 92 94 92
21 22 24 26 28 32 34 36 38 40 42 44 47 49 51 52 53 55 57 57 57 57 58 60 63 65 65 65 71 72 74 77 79 79 80 83 86 90 98 98 97 96 95
26 27 27 30 32 35 38 40 42 45 47 47 49 50 51 53 56 58 59 59 60 61 62 64 65 66 69 71 74 76 77 78 80 83 86 90 95 99 101 99 98 98 97
34 34 34 35 37 39 42 45 47 48 48 48 49 52 56 57 57 58 58 60 62 63 64 66 67 69 72 74 75 76 77 79 82 89 93 96 97 98 99 100 100 101 101
32 36 40 42 43 42 42 43 44 45 48 51 54 55 56 58 58 59 60 62 64 65 66 67 70 72 74 76 80 82 85 89 91 94 96 98 100 102 104 104 103 102 99
38 38 38 38 37 42 44 45 47 49 51 52 53 55 56 57 56 57 58 60 63 67 70 73 77 79 81 83 85 88 91 94 98 100 102 105 106 106 106 106 104 102 100
37 36 36 39 43 45 47 48 50 50 51 51 52 53 54 54 53 57 61 64 68 72 74 77 80 84 87 90 93 95 98 101 104 106 107 109 110 110 110 109 108 105 101
37 40 44 47 49 49 49 48 48 49 50 50 51 52 54 58 61 65 70 73 76 77 79 82 85 88 91 95 98 101 103 106 109 111 113 114 113 111 108 104 101 98 94
42 46 49 49 48 47 47 49 49 49 50 52 54 58 63 67 69 76 79 79 80 83 86 88 92 95 99 102 106 109 111 113 114 115 114 112 108 104 102 99 96 93 89
51 48 46 47 47 49 50 51 52 53 54 56 59 64 67 71 76 79 80 83 85 89 93 97 101 104 107 109 111 113 115 115 114 111 109 106 104 101 98 95 92 88 84
42 42 43 45 47 49 52 53 53 54 57 61 66 71 75 77 79 82 86 90 95 98 102 106 109 111 112 113 113 112 111 109 108 106 103 99 96 92 88 85 80 76 71
39 40 43 45 48 52 51 52 54 58 63 68 72 75 78 82 86 90 95 99 103 106 109 110 110 110 109 107 107 107 105 102 100 96 91 86 81 76 72 66 62 57 53
42 44 47 50 51 50 52 55 61 66 69 72 76 80 84 89 93 97 102 105 107 108 107 106 104 103 102 100 97 93 88 82 76 71 67 63 59 54 50 44 40 36 33
46 47 48 48 49 53 58 62 66 69 73 77 81 86 91 96 100 104 107 106 104 101 98 96 93 88 83 78 72 66 62 58 54 49 45 41 38 35 30 27 24 21 20
44 44 47 50 55 60 63 67 71 74 79 84 89 94 98 102 104 102 98 94 92 89 85 78 72 66 61 56 52 48 44 41 37 33 30 27 24 21 18 16 14 13 12
45 49 53 57 61 65 68 72 77 81 86 91 95 99 100 98 93 89 87 84 80 74 67 62 58 54 50 47 44 40 36 33 29 27 24 21 19 15 12 10 9 9 8
51 55 59 62 66 69 74 78 83 87 91 94 96 94 90 85 83 81 77 71 66 61 57 54 50 48 46 43 39 35 32 28 25 23 20 18 15 11 9 7 6 6 6
56 60 64 67 70 75 79 83 86 90 91 90 86 81 79 78 75 70 66 61 56 54 52 50 49 48 45 41 36 33 29 26 24 21 18 16 12 9 7 5 4 5 8

GFSGL_500_spd_096.txt.gz
Wind_Speed
15 16 15 15 13 12 14 17 20 20 21 19 19 19 20 21 25 26 27 30 34 35 36 42 48 57 59 58 66 61 58 60 57 58 61 57 51 55 55 58 61 61 63
22 21 20 18 18 18 20 19 24 23 22 22 23 22 21 23 25 30 32 32 34 39 45 32 32 40 43 43 42 56 58 55 53 57 62 61 55 60 62 66 65 64 57
21 22 22 19 17 20 21 22 25 28 25 24 24 24 26 27 29 30 33 32 34 37 34 36 40 43 42 43 46 47 51 53 60 59 62 60 60 62 70 76 64 60 62
20 22 25 25 24 23 24 21 20 26 28 28 27 29 30 31 32 32 34 37 39 41 40 43 45 46 46 48 51 53 55 58 59 60 67 77 66 63 66 64 72 69 73
20 21 24 26 25 26 25 24 23 25 27 29 29 30 32 34 34 37 40 41 44 46 47 48 49 50 51 52 55 57 59 61 65 68 72 71 70 75 68 71 72 79 80
22 24 22 24 25 25 25 26 26 27 29 30 32 34 35 37 40 43 45 47 47 48 50 52 52 54 54 56 56 57 58 59 64 64 56 71 72 68 74 74 78 73 84
22 24 27 27 25 28 30 31 31 33 35 36 37 38 40 42 44 46 48 51 52 53 55 56 57 58 58 60 60 61 60 62 63 62 71 71 78 86 78 73 81 84 86
23 25 26 27 30 31 32 33 35 38 40 41 42 44 45 46 47 49 51 52 54 56 58 60 61 61 62 63 64 65 65 64 66 69 70 72 74 77 80 81 87 87 86
25 26 26 26 27 27 28 28 32 35 39 43 45 46 45 47 48 50 52 54 55 56 59 61 63 65 66 66 66 67 68 69 69 70 72 73 77 82 86 87 87 89 91
27 26 26 26 25 25 26 28 30 33 36 39 42 44 46 48 50 52 54 57 58 59 63 65 64 65 65 66 66 68 70 71 72 72 74 79 83 86 88 89 92 93 95
29 28 29 28 28 30 32 34 37 39 41 44 46 49 52 54 55 55 56 58 61 62 62 62 63 63 64 64 65 67 69 71 74 77 80 83 86 89 92 95 97 100 103
32 33 33 34 37 35 35 39 43 45 47 48 48 50 50 50 53 57 59 59 60 60 60 60 61 61 63 66 69 72 75 78 81 84 86 89 92 94 97 99 102 106 108
37 37 34 37 35 38 42 44 43 41 42 44 47 49 51 54 56 57 58 58 59 60 61 60 63 67 70 74 78 80 83 85 88 91 94 96 99 102 104 106 109 111 113
41 33 34 39 40 40 40 40 41 43 47 49 51 53 55 55 55 56 57 57 59 61 65 69 73 76 80 84 86 87 89 92 95 99 102 105 108 111 113 115 116 118 118
41 43 42 40 39 38 39 42 45 48 50 51 51 52 54 56 56 56 58 60 62 65 70 73 77 82 86 88 91 95 98 101 104 108 111 114 116 118 119 120 120 119 117
44 44 43 45 46 44 46 49 51 50 51 51 53 54 56 58 60 61 62 65 68 73 77 81 84 87 91 95 99 103 107 110 113 115 116 118 118 119 117 115 113 111 108
48 48 54 53 50 50 53 56 52 50 51 52 54 57 58 59 60 63 67 70 75 80 82 86 90 94 98 103 107 111 113 115 115 115 114 112 110 109 107 106 103 100 95
48 51 51 49 52 51 53 49 47 49 51 54 56 55 56 59 64 69 73 76 79 83 88 93 98 102 107 111 114 115 114 111 107 105 103 101 99 96 92 87 82 79 75
47 48 46 47 45 46 45 46 50 54 56 55 55 57 61 66 70 73 77 81 86 91 96 102 107 110 112 112 108 103 100 97 95 91 87 83 79 76 71 67 63 60 56
47 48 47 46 42 43 47 50 53 54 53 54 59 64 67 71 75 79 84 89 94 99 104 107 109 109 104 98 94 92 87 82 77 73 69 66 62 58 53 49 45 41 38
47 46 42 40 45 48 50 51 50 53 57 62 65 68 73 77 81 86 91 96 102 105 107 106 101 95 91 87 81 76 72 67 63 59 56 53 47 42 37 33 29 26 24
34 37 41 45 49 50 49 51 55 59 63 66 70 74 79 84 88 93 98 102 104 102 98 92 88 83 78 73 68 64 61 59 55 51 47 43 37 33 28 25 21 18 16
38 42 45 47 47 49 52 57 61 64 68 72 76 81 85 89 94 98 101 100 96 90 85 81 76 71 67 63 60 59 57 53 47 43 40 36 31 28 24 21 18 14 11
44 45 46 48 51 54 58 62 66 69 73 77 81 85 90 95 96 96 92 88 83 80 75 70 66 62 60 58 57 56 51 46 40 36 34 30 27 24 21 18 15 11 7
46 48 49 51 55 59 63 67 70 73 77 80 86 90 92 91 88 85 82 79 75 70 65 61 59 57 56 56 55 51 46 40 35 31 29 26 23 20 18 15 12 8 4
48 48 52 56 60 64 67 70 73 76 81 85 88 88 85 81 79 77 74 70 66 61 58 56 55 55 55 54 51 46 40 35 30 26 24 22 19 17 14 11 8 5 1

GFSGL_500_spd_099.txt.gz
Wind_Speed
17 13 11 11 10 9 9 10 10 11 14 17 19 21 22 23 23 23 23 25 26 27 27 29 33 34 40 37 35 41 46 47 48 47 51 54 59 68 65 58 57 70 72
18 18 17 15 16 18 18 17 14 13 19 21 21 22 21 22 24 23 25 27 28 31 31 34 36 38 36 37 42 46 49 54 56 53 52 54 57 58 59 64 64 65 73
19 20 18 18 19 19 19 20 21 22 19 20 23 22 24 25 26 27 28 29 32 35 35 38 38 41 43 45 47 48 52 54 59 61 59 60 63 62 64 65 64 69 80
17 16 16 17 22 23 23 20 20 22 22 21 22 26 26 28 29 32 33 34 36 38 40 43 44 46 48 50 51 54 56 61 62 63 63 65 66 68 70 64 75 77 72
16 16 17 18 18 21 24 24 23 23 23 22 22 27 29 32 34 32 36 37 39 40 44 46 49 51 55 56 58 59 61 63 64 66 66 67 68 68 69 71 77 75 69
21 21 20 20 20 19 21 24 25 25 25 27 29 31 34 33 33 36 39 41 43 45 48 51 54 56 57 59 61 62 64 66 68 70 70 71 72 72 71 74 75 76 78
24 23 21 22 23 23 23 24 27 28 30 32 33 35 37 39 40 42 44 47 50 52 55 56 57 59 61 62 63 64 66 69 72 74 75 75 75 75 76 76 77 78 80
27 26 23 25 24 24 26 28 28 31 32 34 37 40 42 43 44 46 48 51 54 56 57 58 59 61 64 66 67 69 72 75 76 75 75 76 77 76 77 78 79 80 80
32 30 27 25 25 26 28 29 28 29 31 33 36 38 40 43 45 47 50 53 55 57 59 61 63 65 69 70 72 74 76 74 74 74 74 74 74 75 77 79 81 83 85
33 29 27 29 27 29 28 29 30 31 33 35 38 41 43 46 48 51 54 57 60 63 65 66 66 67 70 71 71 73 72 71 70 70 70 72 75 79 82 84 86 88 91
40 32 30 32 33 31 33 33 34 36 38 42 46 49 50 51 53 55 56 57 60 62 64 67 69 69 69 70 71 71 72 71 73 77 81 84 86 89 90 91 93 96 99
45 38 34 34 36 37 36 38 41 44 44 44 46 47 47 47 48 51 55 58 61 64 66 66 67 69 70 69 69 71 74 78 81 83 87 90 92 94 97 100 103 105 108
47 46 35 38 42 44 39 38 40 44 47 46 44 43 44 47 51 54 57 59 60 61 64 67 68 69 70 72 74 77 82 85 88 91 93 96 100 103 106 110 113 116 118
47 46 39 46 49 49 46 46 44 43 45 45 45 48 51 55 56 57 58 60 62 64 65 67 69 71 73 76 80 84 88 90 92 97 101 105 109 113 117 120 122 123 124
51 45 48 50 54 52 57 51 56 48 47 49 52 55 58 57 57 58 60 61 63 64 65 66 69 73 78 82 85 89 94 97 101 106 110 114 117 119 120 120 118 115 112
53 52 56 58 57 57 56 57 57 54 55 54 58 60 59 56 57 58 60 62 63 64 67 71 75 78 83 87 91 96 101 106 110 113 115 115 114 112 108 104 102 100 97
60 54 55 49 49 47 55 60 60 59 59 58 60 56 54 56 60 62 62 61 65 70 73 76 80 84 88 93 99 104 108 111 113 113 111 106 102 99 95 91 88 85 81
44 42 44 48 51 54 63 60 58 57 58 58 54 53 56 58 60 60 62 67 70 74 79 82 86 91 97 102 106 110 113 111 107 102 98 93 88 84 79 76 72 70 67
51 52 53 58 63 61 57 56 57 54 51 49 50 56 56 56 60 65 68 71 76 80 84 89 94 99 104 108 111 109 104 99 94 88 83 78 74 71 67 64 61 59 55
47 51 51 53 49 50 53 51 53 49 49 51 55 55 57 61 65 69 73 77 81 86 91 96 101 105 108 106 102 98 91 85 80 76 71 68 65 60 55 54 52 48 43
41 43 40 40 42 46 47 47 46 48 51 53 55 59 63 67 70 74 78 83 88 92 97 102 104 104 100 95 89 83 78 75 71 67 65 61 55 48 46 45 43 39 34
31 33 35 37 39 41 44 46 49 50 52 55 59 63 67 72 75 80 84 89 93 97 100 100 97 92 87 82 77 73 70 66 65 63 58 52 45 39 39 37 36 32 28
35 36 37 38 41 44 47 49 51 52 56 60 64 69 72 76 81 86 90 93 95 96 93 88 84 80 76 72 69 66 64 63 61 56 49 42 35 32 33 30 29 26 22
37 36 39 42 46 47 50 52 53 57 61 65 69 72 76 81 85 88 90 91 89 84 81 78 75 71 68 65 63 62 62 59 53 47 41 35 28 26 27 25 23 21 17
37 40 44 46 49 52 52 55 59 63 67 69 72 76 80 83 85 86 85 81 78 75 73 71 67 64 61 60 59 59 56 51 45 41 35 28 22 22 21 20 18 16 12
41 46 49 52 53 53 56 59 63 67 70 72 75 78 81 81 80 78 75 73 72 69 67 64 61 58 57 56 57 54 49 44 40 34 28 21 16 17 16 15 13 11 7

GFSGL_500_spd_102.txt.gz
Wind_Speed
13 13 9 7 6 4 5 7 8 6 6 6 8 9 11 13 15 16 17 18 21 23 23 24 26 29 31 35 33 34 39 38 42 45 48 48 53 55 56 58 57 57 56
13 15 15 13 11 12 13 11 10 8 8 11 13 13 15 17 19 19 19 21 23 24 27 30 31 33 35 37 38 40 44 47 49 52 54 55 58 59 60 61 61 62 63
17 13 13 14 15 17 16 14 14 15 17 14 14 17 20 21 22 23 25 26 28 30 31 33 36 36 35 38 42 45 46 50 51 57 62 62 63 64 65 67 67 68 68
18 15 13 13 14 16 19 17 16 16 16 18 17 19 21 25 26 26 26 29 32 34 35 36 37 39 42 44 46 49 49 60 61 63 65 66 67 68 69 70 71 72 73
19 17 16 13 14 14 17 21 23 22 22 22 21 21 23 24 24 28 31 34 34 36 38 40 41 44 46 47 51 55 58 61 64 66 68 69 71 73 73 74 75 77 77
21 20 19 18 16 18 17 17 19 21 23 22 23 23 24 26 27 31 34 37 39 40 42 44 48 50 53 54 58 60 61 65 67 69 72 75 75 76 77 79 82 81 80
23 19 22 21 21 20 21 22 21 22 24 25 26 27 29 31 32 35 37 40 43 44 47 50 53 55 57 60 62 63 66 68 70 73 75 75 77 80 81 81 81 81 81
25 24 23 24 24 24 21 20 24 25 26 28 28 30 32 34 36 37 40 43 44 47 50 52 56 58 61 63 67 70 72 73 73 75 77 78 77 78 79 79 81 81 81
30 28 26 29 23 25 24 25 25 25 25 26 28 29 30 33 35 38 41 44 47 49 52 57 61 64 65 66 68 70 72 75 76 75 76 77 79 79 80 82 84 86 88
35 32 30 26 28 27 26 27 28 29 30 32 32 32 34 38 41 46 49 53 53 54 59 58 58 61 64 67 70 73 74 73 74 77 78 79 80 82 84 87 90 94 96
39 37 36 31 36 35 29 29 30 31 34 34 34 37 42 44 47 49 50 51 52 52 54 57 59 64 67 68 70 71 74 76 78 79 81 83 84 87 91 94 97 99 101
36 39 42 41 41 41 37 34 35 35 37 37 38 38 40 43 47 49 49 50 51 55 60 63 65 67 69 71 72 74 75 77 78 80 82 86 90 93 96 99 102 106 111
45 45 42 43 47 45 41 41 41 44 45 45 43 47 45 43 48 49 51 55 58 62 65 64 67 69 70 71 73 75 75 77 80 84 88 91 95 99 103 107 111 115 118
50 48 46 49 50 49 47 48 45 50 51 51 51 55 58 56 54 55 57 60 64 67 67 65 65 67 70 72 73 76 79 83 86 90 94 97 102 107 111 115 118 120 121
51 51 51 51 52 48 54 51 50 51 52 54 61 62 58 65 64 63 65 66 66 65 64 64 69 70 71 73 78 81 85 89 92 96 100 105 110 114 117 119 119 117 112
49 53 55 56 55 59 60 59 51 55 58 59 56 57 60 67 68 69 68 67 64 62 62 65 68 71 75 78 82 86 89 94 98 104 109 113 116 117 115 109 104 98 93
51 53 56 57 53 58 59 59 57 55 54 54 56 59 66 73 72 68 62 58 58 61 63 67 72 76 78 82 87 91 96 101 106 111 114 116 113 107 99 92 87 82 78
53 49 53 52 51 49 48 47 48 53 55 58 64 67 65 60 57 55 56 58 62 65 69 73 76 80 84 88 94 98 103 108 112 113 111 104 95 88 83 78 74 70 65
40 38 40 42 45 48 50 53 55 58 62 64 62 57 53 52 52 55 58 62 65 70 74 77 81 85 90 95 100 105 109 110 108 102 93 86 81 76 72 69 64 58 52
47 47 50 51 49 48 48 52 55 50 46 45 45 46 50 51 54 57 61 65 69 73 77 81 87 92 96 101 105 106 103 98 91 85 80 76 72 69 65 58 51 44 42
30 33 36 37 40 44 41 35 37 38 40 43 46 50 52 55 57 61 66 70 74 78 83 88 92 96 99 100 98 93 88 84 80 77 73 70 66 59 53 46 38 35 34
28 26 28 31 31 32 33 35 37 40 43 46 49 51 54 58 63 67 71 75 79 84 88 91 94 94 94 90 85 81 79 76 73 70 67 64 57 49 43 35 30 30 28
33 33 32 34 36 37 37 38 41 43 47 51 54 56 59 64 68 72 76 81 85 88 90 91 89 86 82 79 77 75 72 69 66 65 61 55 48 40 32 25 24 24 23
34 34 32 34 36 38 40 44 47 50 53 54 56 59 64 68 72 76 81 84 86 86 86 83 79 76 74 73 71 69 65 63 62 58 53 46 37 30 21 20 20 19 17
28 31 35 38 40 42 46 48 51 53 54 56 60 65 69 72 74 79 83 83 82 80 76 72 70 69 69 67 64 61 59 58 55 49 44 37 28 20 17 17 16 14 12
32 36 39 42 45 47 49 51 53 55 58 62 65 68 71 73 77 80 80 78 74 70 67 66 66 65 63 61 58 55 55 52 48 43 35 28 19 15 15 15 13 10 7

GFSGL_500_spd_105.txt.gz
Wind_Speed
11 8 9 7 3 2 5 7 7 7 8 8 11 14 16 18 17 17 17 19 19 19 22 23 25 28 28 29 31 34 35 39 41 41 43 43 45 51 49 52 54 57 59
13 12 12 10 9 6 6 6 6 7 10 13 13 14 14 16 18 19 20 21 20 21 24 25 26 29 29 31 34 35 38 39 42 45 47 50 51 55 53 63 64 63 63
15 14 13 11 12 13 12 11 12 13 13 15 14 15 19 21 21 20 19 20 22 25 27 28 29 31 33 35 36 38 40 41 47 49 52 51 54 59 67 66 66 68 70
17 14 13 12 10 13 13 15 15 15 16 17 18 18 19 20 22 24 24 25 27 28 29 32 33 35 36 39 41 42 43 46 50 51 52 64 66 65 66 69 72 72 74
19 17 17 14 11 11 14 14 18 20 21 20 19 19 19 21 20 25 27 25 29 32 33 35 36 38 40 42 45 48 51 52 55 58 60 63 65 68 71 76 77 78 76
19 19 18 18 15 13 13 17 16 19 21 22 23 23 21 20 20 23 27 29 31 34 36 37 40 43 45 46 47 45 51 56 58 62 63 68 69 72 73 75 76 78 78
22 20 17 17 18 17 17 16 18 19 21 21 21 22 23 24 25 28 32 34 35 37 39 40 42 43 45 47 53 48 56 60 61 65 66 69 71 74 76 77 77 78 79
25 22 16 18 19 17 18 18 19 21 22 24 25 25 24 27 28 29 30 31 33 35 38 41 45 48 48 51 49 61 53 64 65 69 70 73 75 76 77 78 80 81 83
26 25 22 20 18 20 23 22 21 20 20 23 24 25 26 25 24 26 28 31 35 40 43 45 47 50 50 49 59 60 61 67 71 73 76 78 80 81 82 83 85 86 87
28 29 31 30 27 25 26 26 25 25 24 25 26 27 28 28 29 31 34 37 39 41 46 45 47 52 53 54 59 63 67 70 74 78 79 82 83 83 85 87 88 89 92
35 36 35 34 34 33 31 30 33 33 32 31 30 31 34 35 35 37 38 40 42 45 47 49 51 53 57 62 67 71 74 77 79 81 81 83 84 86 88 90 93 97 100
40 38 36 40 41 37 37 33 37 43 42 38 38 40 40 40 42 44 43 47 52 52 52 55 57 61 64 68 72 75 79 80 80 79 82 83 86 88 92 95 98 102 105
41 42 41 42 39 37 40 41 47 43 43 44 42 44 51 48 50 48 52 57 63 66 60 64 65 70 73 75 77 80 79 77 79 81 83 86 90 93 96 99 103 107 112
44 45 45 45 43 44 44 46 44 50 44 48 52 50 55 51 52 54 57 62 69 67 63 66 70 76 81 81 77 75 76 78 80 84 88 91 94 98 103 106 110 115 119
46 46 47 47 49 51 53 50 52 46 50 55 56 53 56 57 61 64 66 67 61 62 66 72 76 76 73 70 73 74 77 82 85 88 91 95 99 104 109 114 117 120 120
48 48 48 50 50 54 52 53 54 52 56 57 59 61 60 62 65 66 61 62 62 66 71 65 62 63 67 71 74 77 81 85 88 92 97 101 106 110 114 117 117 112 105
48 48 48 50 49 49 49 52 58 60 62 60 62 61 60 62 59 59 60 63 61 53 55 58 61 66 70 74 77 82 85 89 93 98 103 107 111 113 113 109 102 94 87
38 35 42 45 49 53 54 54 60 57 54 56 57 59 58 56 60 56 51 51 51 54 59 62 66 70 74 78 82 85 90 94 99 102 106 108 108 106 100 92 85 79 74
39 42 46 39 38 43 46 49 51 52 54 55 54 54 50 46 44 43 46 50 54 58 62 66 70 74 78 81 86 90 95 99 102 104 104 103 98 91 84 79 74 69 62
36 36 41 40 43 44 46 47 48 48 49 50 47 42 41 40 42 46 50 54 59 63 67 71 75 78 82 86 90 94 97 99 100 98 94 89 84 78 73 70 64 56 47
36 36 38 42 41 38 34 29 29 30 32 35 33 36 38 43 46 52 57 61 63 67 71 75 78 82 85 89 92 94 95 94 89 85 82 78 73 69 67 60 51 41 33
25 24 25 27 27 27 27 30 33 33 32 34 36 40 44 49 53 57 60 63 67 70 74 78 82 85 88 89 90 88 85 81 78 77 74 70 66 63 56 47 36 29 28
28 29 30 33 35 34 38 37 32 33 35 39 43 47 51 54 57 60 63 67 71 74 78 82 84 86 86 85 81 77 76 74 72 69 66 64 60 52 43 32 25 25 24
32 31 33 32 32 30 29 31 34 37 40 44 47 52 54 56 60 63 67 71 75 78 80 81 82 81 78 74 72 71 71 69 66 62 60 57 51 40 29 24 23 21 19
32 28 28 29 31 32 34 39 42 45 47 50 52 54 56 59 63 67 71 74 76 78 80 79 74 71 69 67 67 67 66 64 59 57 53 48 40 28 23 23 21 17 14
32 36 36 36 38 40 41 44 47 48 50 52 55 56 59 63 67 70 73 75 76 76 74 69 66 63 62 63 64 62 61 57 54 52 46 40 30 25 23 21 18 13 7

GFSGL_500_spd_108.txt.gz
Wind_Speed
16 14 12 6 4 5 6 8 8 15 19 20 24 24 25 22 21 21 24 29 31 27 24 21 24 28 33 30 32 32 32 34 37 34 38 42 42 43 42 50 52 53 53
18 14 13 10 9 9 9 8 10 7 8 13 17 17 18 18 18 17 16 17 18 21 26 28 29 32 29 30 32 33 36 37 38 40 40 41 43 48 50 54 52 53 58
19 17 13 10 10 13 13 13 12 11 13 16 16 17 19 21 23 23 22 21 24 27 29 28 28 29 31 32 34 35 37 38 40 43 45 46 48 49 54 57 58 61 65
21 17 14 11 10 12 15 17 17 17 18 19 20 20 21 22 23 24 24 26 28 28 28 31 32 32 33 35 36 38 40 42 44 47 50 54 54 52 56 57 60 65 67
21 19 16 13 10 11 12 15 18 20 19 19 19 19 20 22 22 25 27 30 30 31 33 33 34 35 37 37 38 40 43 47 49 50 54 52 50 58 53 58 63 64 69
23 21 19 16 13 12 13 12 16 17 20 23 25 24 23 23 24 25 26 29 32 34 36 36 37 38 39 39 41 42 41 45 48 51 50 61 60 59 58 66 70 69 72
26 23 21 18 15 15 15 14 13 13 18 20 22 24 24 25 26 27 28 29 31 33 34 36 37 36 35 37 39 41 44 49 53 52 58 61 58 62 66 71 73 77 81
28 26 24 19 17 15 15 16 15 14 15 16 18 21 23 24 26 29 30 31 32 32 32 31 32 33 35 40 44 43 41 51 60 59 62 64 67 71 73 77 80 83 87
33 30 26 23 17 17 17 18 18 18 17 16 15 16 19 22 24 28 30 32 33 32 32 34 32 37 38 48 49 56 49 60 60 62 67 70 73 78 82 85 87 89 89
32 29 25 23 23 25 20 22 23 22 22 21 21 23 24 25 26 27 31 33 34 35 38 38 38 37 48 49 46 50 59 63 67 71 74 78 82 86 88 89 89 89 91
32 31 29 31 29 29 29 29 30 30 30 29 29 33 35 35 35 35 36 34 36 38 40 41 46 55 55 51 70 71 68 69 67 71 76 83 86 87 86 88 89 91 93
31 33 27 31 31 34 32 31 32 34 39 35 33 33 44 39 40 40 41 47 48 48 48 49 52 55 57 64 74 72 72 73 76 80 82 81 80 81 83 87 92 96 101
34 32 30 34 36 36 38 33 37 37 42 44 38 40 42 45 46 43 48 50 53 54 51 56 60 67 71 73 73 72 73 76 77 73 73 76 81 84 89 94 98 101 106
40 38 37 40 40 40 38 41 39 40 43 42 45 45 42 46 49 42 50 54 64 57 59 61 64 67 71 70 72 75 72 66 69 72 76 81 86 91 94 98 102 107 111
43 44 44 44 44 44 45 45 47 47 46 39 55 54 48 52 62 57 56 63 63 61 63 64 66 66 67 68 65 60 64 68 72 77 82 87 91 95 99 104 109 113 116
49 49 48 46 44 45 46 47 49 47 49 50 47 53 53 58 55 57 67 64 62 62 63 63 61 60 61 56 61 65 69 73 77 82 87 92 96 100 105 109 113 115 115
47 50 50 48 48 48 48 48 46 40 51 49 52 53 58 66 70 63 55 57 59 58 57 56 53 51 56 60 64 68 72 77 82 86 91 96 101 104 107 110 111 109 102
49 48 45 43 45 46 43 41 47 57 54 55 56 59 55 56 52 57 55 51 52 50 45 47 52 57 60 63 67 73 78 83 87 92 96 100 102 103 104 104 100 93 85
36 36 35 38 38 39 41 53 54 63 62 53 48 48 48 51 52 50 53 54 49 42 47 52 57 59 62 69 74 78 83 88 91 96 99 100 100 98 94 90 84 78 73
32 31 33 40 42 44 43 38 34 36 36 40 42 41 42 46 45 44 40 40 43 48 53 56 59 64 69 74 79 83 88 91 94 96 96 94 90 86 82 77 73 68 62
26 28 28 30 29 31 33 33 27 27 25 28 32 34 41 42 39 40 43 46 50 54 57 60 65 69 73 78 83 87 90 92 92 91 87 83 80 77 74 70 65 57 46
23 26 26 25 26 28 27 24 25 29 29 34 39 38 36 37 41 45 48 51 53 57 60 64 68 73 78 82 86 89 89 89 86 81 76 75 73 70 65 62 52 43 38
22 23 25 27 28 28 30 33 35 35 32 32 34 35 38 42 46 49 51 54 57 61 64 68 72 76 80 83 85 84 84 80 74 70 70 69 66 62 58 51 40 37 33
24 27 31 32 32 33 33 31 30 30 32 36 38 40 43 47 50 52 54 57 61 64 67 70 75 77 80 81 80 78 73 68 65 66 66 63 59 56 51 41 34 31 26
25 27 30 33 34 35 36 38 39 39 41 43 45 46 48 49 52 55 58 60 63 66 70 73 75 76 76 76 71 68 64 62 63 63 61 57 53 49 43 35 30 26 19
30 29 30 32 33 35 37 39 39 41 43 46 48 50 52 53 55 57 59 62 65 68 70 72 73 73 70 67 65 61 59 60 61 59 55 51 48 42 35 30 26 19 11

GFSGL_500_spd_111.txt.gz
Wind_Speed
21 18 17 16 16 12 12 10 7 13 15 27 26 35 36 38 35 27 32 34 32 33 37 41 37 36 36 31 29 27 30 35 38 28 34 37 36 39 42 43 45 47 47
22 20 18 16 13 17 12 13 9 8 12 14 23 31 33 30 38 23 23 21 26 28 32 32 29 29 25 25 28 34 35 37 37 35 35 38 39 41 43 45 48 50 52
24 21 20 17 15 14 18 15 12 10 7 8 15 27 31 31 28 30 19 18 17 20 21 23 25 27 30 32 34 35 35 35 36 38 42 43 43 44 47 48 51 57 56
25 23 21 19 16 14 13 19 18 15 13 12 9 8 11 17 21 17 19 20 22 24 26 30 33 35 36 36 35 35 35 36 39 42 44 46 48 49 49 55 51 54 58
27 25 22 19 17 16 14 12 20 20 19 17 17 18 18 18 19 22 27 30 32 33 34 36 38 38 38 37 36 36 38 39 40 45 43 47 48 49 51 57 58 55 61
31 28 23 20 19 16 15 13 10 18 21 22 22 23 23 24 25 27 29 31 32 33 36 39 40 38 37 37 39 39 39 40 38 43 50 45 54 54 56 59 60 60 64
33 32 28 24 21 19 17 15 12 12 16 19 22 24 25 26 27 27 29 31 31 32 32 33 35 36 37 39 38 38 39 41 42 44 51 50 57 55 63 65 67 71 74
37 35 31 28 26 22 15 17 18 15 15 15 16 18 20 23 25 26 28 30 31 33 34 35 36 36 36 35 39 41 43 44 52 55 49 49 57 66 68 70 74 76 79
40 38 36 33 28 22 19 18 18 16 16 17 17 17 18 20 21 22 21 22 25 28 31 34 36 36 37 40 42 44 44 47 52 59 58 57 72 71 73 79 80 82 83
39 41 39 35 30 26 25 22 21 20 19 18 18 20 20 21 20 22 25 26 29 31 31 34 38 40 40 44 47 49 53 54 60 59 60 70 73 78 77 80 84 82 79
38 39 43 37 34 34 32 26 24 25 26 26 25 25 25 28 29 29 31 35 34 36 41 40 48 53 44 46 55 56 56 60 62 68 72 76 77 79 82 83 78 80 82
33 29 31 39 39 37 34 31 31 29 33 32 28 29 34 37 36 36 34 41 45 45 45 48 44 58 52 56 63 59 61 64 66 68 77 79 76 75 72 76 80 83 88
31 30 25 25 36 38 38 35 32 31 32 36 37 36 33 39 46 42 41 41 45 44 47 64 65 62 54 64 66 65 65 66 75 78 73 66 66 70 74 78 84 88 95
38 38 36 32 31 30 28 32 30 43 42 39 35 34 41 43 45 47 47 45 54 58 57 57 62 67 59 64 64 63 67 74 70 62 62 66 68 72 78 83 89 94 99
41 42 44 42 40 40 37 39 40 39 41 43 44 47 49 50 52 56 56 57 71 57 68 73 58 59 62 59 61 70 65 58 58 63 65 67 74 78 84 90 95 101 105
45 43 42 42 42 45 45 43 42 42 42 43 50 43 53 49 53 49 49 51 55 56 66 57 55 56 59 67 63 59 60 59 63 65 68 74 79 86 91 97 102 105 106
43 44 44 44 43 43 40 40 41 43 45 37 45 47 45 56 50 51 53 57 63 57 58 56 61 59 55 59 55 56 60 64 67 71 75 80 86 91 97 102 104 105 104
40 41 41 41 42 41 42 40 36 37 39 40 43 45 48 49 55 51 64 62 60 57 55 53 56 57 49 51 56 60 64 69 73 76 80 86 91 96 100 102 102 100 96
40 38 36 36 36 38 38 37 36 38 45 50 49 48 52 59 63 57 49 46 49 51 53 50 46 48 53 57 60 64 68 72 76 81 86 90 94 98 100 98 95 90 85
37 38 38 36 35 35 32 34 40 41 42 47 47 46 43 42 39 37 38 40 41 42 41 43 47 49 53 58 62 67 71 75 80 85 88 92 95 96 94 89 84 78 72
31 31 34 34 35 31 30 29 33 36 38 37 35 34 33 35 38 42 41 36 38 40 43 46 49 53 57 61 66 70 74 78 83 87 89 91 92 89 83 79 73 68 63
24 27 30 29 27 27 28 30 30 31 31 29 30 34 38 41 40 38 39 39 41 44 47 50 53 57 60 64 69 73 77 80 84 86 88 88 82 76 73 70 64 60 55
21 19 20 23 26 28 30 31 28 27 29 32 33 33 34 37 38 40 42 45 47 49 52 54 58 60 63 68 72 75 77 80 83 85 82 76 71 68 67 61 57 52 44
20 19 22 24 27 29 31 32 33 33 34 36 37 38 41 43 46 47 49 50 53 54 56 58 60 62 66 70 72 75 78 80 81 78 70 65 64 63 60 55 51 43 35
20 22 27 29 30 30 32 35 37 37 37 38 39 40 43 44 46 49 51 52 54 56 58 60 62 65 68 72 75 77 78 77 73 65 60 60 60 58 53 49 44 35 29
25 28 27 29 32 34 35 37 38 38 39 39 40 42 44 46 48 49 51 54 56 58 59 61 64 67 71 73 75 75 73 68 61 56 56 57 56 52 48 43 37 28 23

GFSGL_500_spd_117.txt.gz
Wind_Speed
34 35 35 29 24 15 13 14 12 11 9 9 16 23 23 40 36 37 39 38 37 35 35 33 31 32 36 34 33 34 34 37 38 40 40 40 34 32 34 36 35 37 37
33 37 35 30 25 17 16 13 15 14 12 10 16 20 29 39 41 44 45 39 39 39 40 37 35 29 25 29 32 35 34 35 42 42 42 32 33 35 39 38 39 40 42
36 38 35 32 26 19 18 15 13 17 13 11 15 14 27 37 39 42 38 40 42 40 38 36 33 29 24 24 30 29 33 31 28 28 31 34 37 37 38 40 40 42 48
38 39 36 34 27 21 20 16 12 14 15 13 11 12 14 27 33 36 38 42 41 41 43 42 34 29 25 21 23 25 24 25 30 36 37 38 40 41 43 43 46 50 50
42 40 38 36 29 24 21 18 13 13 15 16 13 8 6 7 22 25 31 33 39 35 27 27 30 21 18 19 23 25 30 35 39 41 41 42 43 46 47 49 52 54 54
44 43 40 38 31 26 23 21 16 15 14 16 15 12 7 4 3 16 25 26 27 23 16 19 21 21 23 29 32 34 37 39 40 41 43 45 47 50 53 54 54 54 56
46 44 41 39 33 29 26 22 20 18 16 13 14 14 12 10 10 8 12 13 15 10 23 25 25 28 30 31 34 35 36 37 39 42 45 47 50 52 51 52 53 56 60
45 45 42 40 36 32 27 25 24 22 18 16 14 15 16 15 15 15 15 16 18 22 24 26 28 30 30 31 32 33 34 36 38 42 45 47 49 51 53 55 56 58 64
45 45 46 43 39 35 30 30 28 25 23 19 19 17 16 16 16 17 19 22 24 26 27 28 27 26 28 29 30 32 34 36 41 44 47 50 52 54 57 62 68 75 82
47 43 48 38 43 41 36 33 32 29 26 25 23 21 19 19 19 20 21 22 22 23 24 26 27 27 28 30 33 36 39 43 46 49 53 56 58 61 67 75 78 80 84
45 46 41 39 41 41 40 36 36 34 30 28 27 27 25 22 21 21 21 21 22 24 26 29 31 34 37 37 38 40 44 48 51 56 60 61 62 66 71 73 75 76 75
51 47 42 43 43 40 36 30 36 34 35 33 33 31 30 27 26 26 25 25 27 29 30 33 33 35 37 41 46 48 52 53 56 65 71 72 70 67 67 66 67 70 72
46 44 39 33 36 32 30 27 31 34 37 38 39 38 35 34 33 32 31 34 35 34 36 36 43 48 51 46 51 55 56 60 61 57 60 64 65 66 67 68 69 71 67
36 34 38 40 35 31 37 30 30 35 39 46 42 43 40 36 36 35 31 34 36 40 41 44 46 58 61 55 54 58 68 62 55 59 62 63 64 64 65 65 64 65 70
36 15 30 26 26 34 25 34 31 35 40 31 44 43 39 39 39 42 43 50 49 52 57 47 51 51 56 53 55 56 57 61 60 61 58 59 61 62 61 62 65 69 72
41 43 32 20 33 25 25 28 24 25 42 48 47 38 46 41 38 45 41 40 43 44 49 47 52 51 51 61 57 55 56 61 60 56 57 61 60 59 61 65 70 74 77
22 27 26 25 19 29 29 29 29 24 26 27 40 54 46 42 42 38 41 37 48 49 44 50 53 51 52 51 54 56 53 51 54 55 55 57 58 61 67 70 73 76 78
24 25 28 26 28 34 33 33 34 30 39 36 40 45 40 38 38 42 46 44 49 49 50 52 51 51 51 50 50 49 49 52 53 55 56 58 63 67 69 71 74 76 78
24 28 30 30 31 31 32 32 32 33 34 36 38 38 38 42 43 44 46 49 49 50 50 51 51 47 47 46 45 48 50 52 54 57 60 64 67 69 70 71 74 77 80
27 28 30 30 30 31 33 33 34 34 34 35 37 37 38 38 39 42 45 47 48 50 49 45 44 43 43 46 48 49 52 56 59 62 64 66 66 68 70 73 76 79 81
21 23 26 29 31 32 32 31 32 33 35 37 35 34 36 36 38 40 41 43 42 40 39 39 41 44 47 50 52 55 58 59 61 63 64 65 67 70 72 75 78 79 80
20 22 23 26 29 29 31 31 30 32 33 34 38 41 42 41 36 36 36 37 37 38 40 43 46 48 50 52 54 56 58 60 62 63 64 66 68 71 74 76 77 76 69
20 23 24 26 26 27 26 32 36 35 35 35 35 35 33 33 35 36 35 37 40 42 45 47 48 50 51 52 55 58 59 60 61 62 65 67 70 73 76 77 74 66 61
17 20 22 24 26 26 27 28 29 29 31 32 32 32 33 34 34 36 38 40 41 43 46 47 49 51 54 56 57 58 59 60 62 65 68 70 72 74 74 71 63 57 53
16 17 19 20 21 22 24 26 28 29 30 32 33 33 35 36 37 38 41 43 44 45 47 49 51 54 56 58 59 58 60 62 64 66 69 72 72 71 67 61 55 51 47
19 24 25 23 24 24 25 27 30 32 35 37 38 38 39 40 43 45 45 46 48 50 52 53 55 57 57 57 57 59 61 64 67 69 71 71 69 64 57 52 49 47 43

GFSGL_500_spd_120.txt.gz
Wind_Speed
41 41 40 36 35 30 30 31 26 20 16 15 13 13 15 18 20 19 28 40 37 41 40 38 37 36 36 34 35 36 36 37 36 33 27 32 37 39 36 40 36 34 35
44 43 43 36 34 30 31 31 27 20 19 17 17 17 20 22 30 28 33 32 35 34 33 38 34 33 34 29 32 37 37 34 31 35 35 35 40 39 39 36 36 36 42
45 46 45 36 35 31 31 31 27 20 21 20 20 21 21 25 37 36 38 35 34 39 37 41 38 35 34 32 34 31 29 28 28 29 32 35 32 26 32 36 40 42 43
47 48 45 40 37 33 32 31 28 21 21 24 23 20 22 22 33 41 35 40 38 39 42 42 43 41 36 40 38 31 28 28 28 27 28 29 33 36 40 42 44 45 47
51 51 46 40 39 35 33 32 27 22 21 23 25 21 19 14 22 30 37 37 43 45 43 42 46 42 32 40 34 24 21 21 22 27 32 35 39 44 45 46 47 49 50
52 51 46 42 40 36 35 33 27 23 22 20 21 21 16 17 14 23 25 35 43 38 39 38 34 36 31 27 20 21 23 25 31 34 38 41 43 44 45 46 49 51 54
54 52 47 44 41 37 37 34 28 25 24 19 15 18 17 13 8 7 23 23 32 40 35 31 35 30 20 21 25 26 31 36 37 38 39 40 41 42 44 47 50 53 55
54 54 49 46 43 38 38 35 31 27 25 21 16 14 18 18 15 12 8 15 21 20 14 17 25 24 25 28 31 36 37 36 36 36 37 38 40 43 46 50 53 56 59
58 56 50 46 45 39 39 37 34 30 27 22 19 16 15 16 17 17 16 17 16 18 19 20 26 33 34 35 35 36 33 32 33 35 40 42 45 50 54 56 60 62 66
55 55 51 44 44 39 41 40 36 33 29 25 21 19 18 17 16 16 18 19 20 22 26 29 31 31 32 31 30 30 32 35 38 41 43 45 48 52 57 59 66 71 75
51 50 41 43 44 41 39 42 41 37 32 30 25 24 21 20 19 19 19 19 20 21 23 24 26 26 28 29 31 35 38 40 43 47 50 53 58 63 65 69 66 61 64
55 57 46 41 44 47 42 42 43 42 36 32 29 28 28 27 24 24 23 21 21 23 23 24 26 28 30 33 37 39 39 43 47 51 56 58 64 68 70 63 62 65 64
41 47 45 46 43 43 39 39 43 47 41 37 34 32 31 31 31 30 29 27 27 27 30 32 34 35 37 37 38 42 45 48 57 60 60 61 64 60 60 62 65 65 62
35 56 56 47 50 48 45 40 38 33 32 33 32 33 34 35 36 36 36 35 33 33 35 35 35 37 41 45 49 49 53 58 56 60 62 61 63 64 66 65 62 62 64
44 36 50 47 39 46 44 41 30 31 32 32 34 36 40 40 41 43 42 41 41 41 43 44 42 48 54 55 58 56 57 56 59 61 59 59 62 64 59 58 59 62 64
52 46 36 39 38 35 33 44 40 38 35 41 40 39 42 33 41 45 48 42 42 44 48 50 53 48 52 49 51 52 54 58 60 59 57 55 53 53 55 57 60 63 67
35 38 33 29 37 38 38 39 42 39 40 38 31 38 38 34 37 47 50 59 45 43 48 48 43 49 51 56 56 59 58 55 53 53 50 48 52 55 58 61 65 68 70
22 29 35 36 23 31 33 31 35 32 36 25 22 31 31 36 31 35 33 38 46 44 45 50 51 51 55 56 56 55 55 51 49 47 50 53 55 58 62 64 67 69 72
15 17 17 18 20 26 24 29 18 24 27 25 30 32 40 38 41 43 46 47 48 50 50 52 56 56 51 51 50 50 48 45 47 51 54 56 59 62 64 67 69 71 71
20 21 21 20 21 25 29 29 33 33 39 41 38 44 42 44 46 49 50 51 51 51 52 52 54 55 50 47 45 45 45 49 52 54 56 58 60 65 66 69 69 70 71
24 24 26 27 29 31 32 34 36 36 39 44 41 40 42 44 44 44 46 47 46 45 46 47 47 46 45 44 43 46 50 52 54 56 57 61 63 66 66 67 68 70 72
27 27 27 28 29 32 33 34 35 36 36 38 37 35 36 41 41 41 42 45 48 47 45 43 42 42 42 44 46 49 52 54 55 58 61 63 64 64 65 67 69 71 73
26 28 27 27 27 29 32 33 34 36 37 36 35 37 41 42 43 44 44 41 40 40 39 40 41 43 44 47 49 51 53 55 57 61 62 62 62 63 66 68 70 72 74
27 27 27 28 27 29 31 32 33 36 37 38 40 43 44 43 41 38 38 38 38 39 41 43 43 46 48 49 52 54 56 58 60 61 61 60 62 65 67 70 72 73 70
18 19 23 26 28 29 30 33 34 36 37 38 37 37 36 36 37 37 38 40 42 44 45 46 48 49 51 54 55 57 59 60 59 59 59 61 64 67 69 71 72 68 59
23 24 24 24 24 26 28 30 31 32 33 33 34 35 36 37 40 42 43 44 45 47 48 50 52 54 55 56 59 58 58 58 58 59 61 64 67 68 70 70 65 57 49

GFSGL_500_spd_123.txt.gz
Wind_Speed
39 37 35 40 43 41 35 30 30 31 29 30 27 24 23 24 22 23 37 42 46 47 48 50 52 52 47 39 38 38 34 31 33 36 33 32 36 37 35 34 34 37 37
41 39 35 39 46 40 36 33 32 31 29 29 26 24 22 24 26 26 20 41 43 44 50 50 49 52 46 36 33 34 32 30 33 35 38 37 34 37 37 36 36 36 30
42 40 37 37 46 40 36 35 32 31 28 29 27 28 26 28 27 27 24 28 34 40 43 41 39 39 39 34 34 33 32 35 35 38 39 36 36 33 32 32 28 31 34
40 41 40 38 45 44 38 37 33 31 30 30 28 29 26 26 28 29 33 35 28 37 37 40 39 32 35 33 34 33 33 36 34 33 33 35 32 28 29 31 34 37 41
42 41 40 39 44 46 40 38 35 31 31 31 28 27 26 28 28 31 38 40 33 37 37 41 45 43 39 37 40 30 32 39 40 34 31 27 25 30 32 36 39 43 46
43 43 41 42 46 47 42 39 36 33 32 31 27 24 24 29 29 31 30 40 41 39 44 41 39 40 45 43 45 38 33 33 28 23 23 28 35 35 38 41 44 46 46
43 44 42 44 49 48 43 41 38 34 33 32 26 24 22 26 26 25 13 24 32 37 40 47 44 41 37 35 43 34 29 28 26 28 31 34 37 40 42 44 45 45 46
43 40 40 47 50 48 45 45 39 36 34 32 27 23 21 20 22 19 13 11 23 29 41 44 43 48 41 34 33 31 21 27 31 32 36 38 39 41 42 44 46 49 51
35 36 42 47 51 49 46 45 40 38 36 34 28 22 20 18 17 18 16 12 8 12 21 22 27 27 30 26 20 24 29 33 36 39 40 38 38 40 43 47 50 52 56
37 38 41 48 53 50 45 45 39 39 38 36 30 23 21 19 16 16 17 17 17 15 19 18 17 17 22 29 29 30 35 38 40 38 37 38 42 44 48 49 53 57 62
43 44 39 50 52 50 47 46 45 43 40 38 33 27 24 23 19 17 16 17 18 20 22 23 25 28 31 34 36 37 37 37 35 36 39 44 46 48 51 59 61 66 70
45 49 41 51 54 48 49 44 46 42 45 40 36 31 28 26 24 22 20 20 20 21 24 26 28 30 31 32 33 33 34 35 39 43 44 46 48 55 56 59 63 65 68
44 43 54 55 61 49 46 45 38 43 44 42 38 35 33 29 28 26 24 24 24 24 24 24 25 27 27 28 31 35 39 42 43 44 48 53 56 58 60 62 63 66 66
41 38 48 55 48 47 43 39 40 39 41 39 40 40 38 36 35 32 29 29 28 29 31 31 31 31 32 34 35 37 40 45 50 52 55 57 59 59 63 64 65 62 60
37 40 47 51 56 56 45 43 41 38 38 41 43 44 44 41 37 36 37 35 35 35 35 36 36 38 39 41 43 44 48 49 51 57 52 54 56 60 61 60 59 56 56
27 45 48 44 51 58 48 47 45 44 42 46 42 32 33 32 37 36 37 35 38 39 40 40 40 44 44 46 47 46 50 52 52 54 58 60 61 61 61 58 55 57 59
28 37 31 43 43 52 51 49 52 50 47 49 45 36 36 27 36 40 43 44 37 37 42 44 49 47 46 47 51 50 50 50 55 60 61 60 61 56 55 54 57 59 61
33 38 39 37 35 39 45 45 45 47 40 40 38 41 40 38 41 46 43 37 36 38 38 41 41 44 47 51 53 53 55 57 58 57 56 55 52 51 54 57 59 61 62
20 32 31 37 36 35 37 39 41 39 39 41 46 55 56 41 36 37 39 40 41 43 41 43 46 50 50 50 54 56 55 54 54 52 49 48 51 54 57 59 62 63 66
15 11 18 27 23 24 28 31 34 30 27 23 28 30 28 30 31 37 42 43 46 44 43 47 50 53 54 53 52 51 52 50 47 47 48 51 55 58 60 61 64 66 68
20 19 16 14 19 24 26 26 27 32 29 38 30 33 35 35 37 39 46 46 49 45 47 51 54 51 49 50 51 52 49 47 46 49 51 54 57 59 62 64 66 67 66
19 21 23 24 22 21 22 25 33 29 32 29 29 32 35 39 43 43 46 50 50 49 49 49 49 49 50 49 47 45 44 46 49 51 54 56 60 62 64 65 65 65 65
19 21 22 23 24 25 27 29 31 34 35 36 37 39 43 47 49 45 44 43 44 44 44 45 45 43 42 41 42 45 47 49 51 54 57 59 61 63 65 65 63 63 65
21 21 22 23 23 24 24 24 24 25 28 31 34 37 39 40 41 40 41 42 43 43 41 39 38 38 41 44 46 48 51 52 55 58 60 60 62 64 64 63 62 65 67
18 22 25 25 26 28 29 30 30 30 31 31 32 33 35 37 37 38 37 36 36 36 36 38 40 43 45 47 50 52 54 56 59 60 60 60 61 62 62 63 65 67 69
20 20 21 21 21 22 24 26 28 29 30 30 30 30 31 31 32 32 34 36 38 40 41 41 43 47 50 52 54 56 58 59 59 59 60 60 61 61 63 65 67 69 69

GFSGL_500_spd_126.txt.gz
Wind_Speed
39 40 37 35 35 37 33 31 35 31 30 30 29 31 29 31 28 26 23 22 30 44 42 50 49 46 47 52 49 45 41 41 35 31 33 32 34 35 36 36 34 36 39
44 40 35 36 35 38 35 32 35 33 31 31 28 30 28 29 26 26 26 27 22 39 42 44 50 45 45 52 51 47 45 43 35 33 30 31 34 34 37 38 38 38 38
43 45 38 37 36 38 36 33 34 33 36 32 29 30 28 28 28 28 28 24 24 25 33 40 45 45 42 51 47 45 44 45 35 32 32 36 35 35 37 36 37 37 33
38 38 40 39 36 39 37 33 32 34 35 33 30 31 27 29 29 30 29 27 27 21 25 29 37 41 44 46 43 42 42 39 34 30 32 34 35 33 33 33 34 32 30
32 37 40 38 42 42 39 35 31 35 36 34 32 32 27 28 28 30 33 28 29 31 29 27 31 38 40 38 39 40 41 34 26 28 31 32 34 34 34 27 28 33 36
31 33 41 44 40 41 38 36 32 35 37 35 33 33 29 29 27 25 30 30 33 36 36 37 32 34 35 39 37 36 36 35 35 32 30 34 35 31 26 29 35 37 40
32 35 39 39 41 39 38 36 36 36 38 36 35 34 29 29 28 26 23 26 28 28 25 34 31 35 35 39 43 45 43 42 42 33 35 30 25 27 33 34 39 41 42
32 36 39 37 39 37 38 39 38 38 41 40 37 36 30 29 27 23 21 22 24 15 24 33 37 36 41 40 43 46 39 38 36 34 28 23 30 33 36 40 42 42 42
33 34 38 38 38 37 38 41 38 39 43 41 39 37 31 29 25 22 18 19 17 14 18 24 33 38 39 44 49 50 37 33 28 21 24 31 35 38 42 44 42 41 46
34 34 36 37 36 36 38 38 39 43 46 44 42 38 33 30 25 20 17 15 16 15 9 11 10 27 32 32 36 35 27 20 21 29 35 36 41 45 46 43 43 46 48
36 35 34 36 34 38 39 40 42 47 48 47 44 39 34 32 28 22 18 17 16 18 18 16 15 14 15 19 20 24 27 29 31 36 39 41 44 44 44 46 49 51 53
38 38 38 36 37 50 37 36 47 50 51 47 42 40 36 34 31 26 22 20 19 18 19 18 20 22 21 22 27 32 34 36 39 40 41 41 43 46 47 48 51 56 59
40 40 39 38 42 45 46 45 51 51 50 45 44 44 38 36 34 29 27 23 22 21 20 21 23 24 26 29 33 37 38 37 36 38 41 44 47 48 50 54 57 58 56
37 38 39 41 40 42 42 46 53 57 49 45 47 47 46 42 39 34 31 29 24 24 26 27 26 27 28 29 31 32 34 37 38 39 42 45 46 49 53 58 59 57 59
32 33 37 46 39 44 49 54 54 52 47 48 45 46 40 48 46 39 36 34 33 31 29 28 28 30 31 33 35 37 37 40 41 42 44 47 51 53 52 56 60 60 59
29 32 31 36 41 39 48 73 56 54 50 44 41 38 37 39 44 42 42 39 36 34 31 31 31 32 33 33 37 38 37 39 43 47 48 47 50 53 55 58 58 58 57
24 27 24 31 41 43 42 53 56 57 48 42 44 44 39 36 35 38 33 39 39 34 35 36 35 36 37 36 42 42 44 40 43 45 47 50 53 55 54 53 53 52 52
15 25 32 20 27 41 39 52 55 60 55 48 49 42 44 37 40 43 33 29 33 38 40 40 38 37 36 37 40 44 46 47 47 49 48 51 52 52 50 51 51 53 55
10 18 26 25 19 27 44 49 53 53 59 58 54 47 53 40 38 41 45 48 44 45 45 49 45 42 45 43 44 46 44 45 47 46 46 48 48 50 52 50 51 54 58
13 7 26 24 18 21 18 30 43 42 47 51 46 46 43 47 46 52 45 37 34 39 39 40 42 46 48 48 48 48 47 45 45 48 48 49 50 49 50 51 54 58 61
6 12 11 20 18 24 27 26 21 33 46 53 56 42 44 43 38 32 31 36 31 33 35 38 42 44 47 46 44 45 45 46 46 46 46 48 47 49 52 54 58 61 62
8 9 10 16 11 8 14 19 24 24 27 26 29 36 34 27 29 31 30 32 34 36 38 40 42 44 42 41 41 42 43 43 45 45 46 47 50 52 55 58 60 62 65
8 7 8 11 14 17 15 13 13 20 23 26 23 26 26 29 30 31 34 33 36 40 40 39 40 44 47 44 45 46 46 46 43 45 48 50 54 56 57 59 61 64 65
9 10 12 14 14 14 15 15 16 20 22 24 26 27 28 29 32 33 35 38 41 43 43 42 42 44 44 41 41 41 41 42 46 49 52 54 54 56 59 62 64 64 65
9 11 12 13 13 16 18 20 20 21 22 24 26 27 30 31 33 35 37 39 40 41 42 42 42 40 38 37 39 42 44 46 50 51 52 54 56 59 61 63 64 63 63
16 14 13 14 15 15 16 17 20 23 24 25 25 26 27 28 30 31 32 33 34 35 36 36 37 38 39 41 43 46 48 49 50 52 54 56 57 61 62 62 62 62 65

GFSGL_500_spd_129.txt.gz
Wind_Speed
44 43 43 45 41 40 39 38 37 32 26 27 31 30 30 28 28 29 27 28 27 27 22 33 38 42 44 45 49 47 40 39 39 39 39 40 40 45 35 34 36 36 38
41 40 39 38 35 37 40 39 38 33 28 28 32 32 30 29 29 30 26 26 25 24 21 25 37 43 48 48 49 49 43 43 43 42 43 41 33 31 32 34 33 35 41
37 41 39 41 39 34 32 35 36 33 30 28 30 32 31 31 29 29 27 26 26 22 24 16 29 41 41 45 49 49 45 45 43 42 43 42 35 30 31 33 33 34 34
31 34 36 35 39 43 36 36 36 32 29 30 30 33 32 32 29 30 27 27 27 25 23 22 17 38 42 48 48 49 49 46 43 38 43 35 30 32 31 31 32 34 35
30 33 34 34 34 36 40 37 36 30 29 31 31 32 33 31 31 32 28 28 27 27 27 26 24 22 36 41 47 46 45 44 39 39 37 32 32 26 30 29 30 34 34
26 30 33 31 32 35 40 39 34 30 32 34 32 33 34 31 31 32 27 28 28 27 29 31 26 26 28 35 38 40 44 43 39 39 36 25 22 32 32 31 31 34 31
23 28 32 32 34 39 43 39 31 33 36 35 34 35 35 32 32 32 28 28 30 27 27 27 34 31 34 31 36 36 42 38 39 37 34 36 29 33 36 32 30 32 34
35 31 32 35 36 36 42 42 39 39 38 37 35 37 36 34 32 31 29 28 30 23 22 27 24 27 34 33 35 34 36 36 36 38 40 37 36 34 36 31 34 36 40
42 33 33 35 38 37 38 44 42 41 40 38 37 39 38 37 33 32 30 28 28 21 22 21 20 26 31 31 32 33 30 31 34 38 32 31 31 30 31 33 38 40 41
46 33 33 35 39 42 38 40 41 41 38 36 39 40 41 40 35 34 30 28 27 21 20 16 16 25 30 39 39 36 32 31 31 33 37 33 31 31 38 42 40 42 46
45 37 33 34 39 43 41 41 42 39 44 36 38 40 43 42 37 35 31 28 27 22 19 19 14 13 19 29 37 39 36 37 38 33 29 29 30 38 43 44 44 46 48
46 40 37 35 39 42 40 42 43 37 36 34 38 43 45 44 41 37 34 29 29 26 22 19 20 19 18 18 19 21 25 30 32 33 34 36 39 41 41 42 42 44 47
40 41 42 40 41 42 40 41 44 39 42 41 45 45 47 46 43 39 37 32 31 28 25 22 20 21 22 21 22 27 30 31 33 35 39 42 39 39 39 40 44 47 49
34 34 38 41 43 43 42 44 44 48 38 42 43 46 49 48 45 41 40 36 33 31 29 28 26 24 23 24 27 30 32 34 38 40 40 39 39 40 41 45 47 49 53
30 30 28 36 43 43 43 42 40 48 54 43 42 51 52 50 45 46 43 42 40 38 34 30 27 26 26 26 27 28 29 32 33 35 39 41 43 47 47 47 46 49 52
30 26 28 32 36 40 42 43 42 46 52 42 43 45 47 48 47 52 50 51 48 44 38 34 32 32 31 31 32 34 34 34 37 41 43 42 42 44 44 46 48 48 50
18 24 23 27 29 35 41 40 43 42 48 53 54 54 50 55 49 50 38 41 41 46 41 38 36 33 33 34 31 33 35 36 36 37 39 44 48 48 49 49 48 48 49
13 14 23 26 26 29 33 36 41 45 49 57 50 47 53 54 50 43 37 36 37 42 37 37 39 42 39 38 42 45 42 43 44 44 44 44 48 49 47 46 48 49 49
12 1 4 16 23 24 28 32 37 41 44 52 52 53 50 48 43 43 41 38 43 42 43 42 39 35 35 41 43 45 47 51 51 48 49 52 55 54 49 48 48 47 47
8 11 12 2 14 15 19 27 32 37 37 50 52 47 49 54 46 52 48 44 43 45 45 53 47 44 45 49 47 48 51 51 48 48 52 52 49 46 46 46 45 47 49
4 7 8 6 11 14 10 8 28 41 45 55 52 47 50 50 45 44 42 48 45 44 48 46 42 41 39 40 39 40 41 41 42 38 38 41 44 44 43 44 46 48 51
8 6 2 6 8 5 9 10 4 22 39 44 48 51 49 46 46 49 44 43 44 41 37 36 34 32 34 36 37 38 35 36 37 40 41 41 41 42 44 45 48 52 56
6 7 9 8 4 7 7 6 3 3 13 23 30 32 40 39 41 38 40 40 38 36 34 33 36 34 34 33 33 35 39 41 41 41 40 41 42 44 47 50 54 55 56
5 7 8 8 13 9 5 4 4 7 5 5 11 17 20 17 22 29 34 33 32 31 28 29 31 33 35 36 38 40 39 39 38 38 40 42 44 49 52 54 55 56 57
7 7 6 7 7 7 10 13 11 10 12 13 14 14 15 15 17 20 23 26 28 29 31 33 36 38 40 39 37 36 36 37 38 42 44 46 50 53 53 54 55 57 60
13 12 10 9 9 9 9 10 11 14 17 19 21 22 23 25 26 28 29 31 33 34 35 35 35 35 36 36 36 38 41 42 44 46 48 50 52 53 54 56 58 59 61

GFSGL_500_spd_132.txt.gz
Wind_Speed
43 39 34 33 34 40 42 42 42 41 40 37 35 34 33 33 34 34 34 30 28 30 27 26 28 34 32 38 42 44 41 45 45 37 40 39 41 40 41 43 44 43 41
39 41 42 39 42 41 42 43 42 43 40 37 35 36 31 31 34 36 34 31 29 28 26 25 31 26 30 39 39 42 42 46 44 40 37 37 41 41 43 41 46 44 40
45 43 41 46 48 45 42 41 41 42 42 41 39 36 34 34 37 35 33 31 30 27 26 25 27 30 23 38 41 44 41 44 45 46 44 41 40 40 38 37 38 37 36
41 36 37 37 39 42 42 43 41 40 42 42 38 37 37 36 37 36 32 31 31 27 25 25 26 26 21 32 45 49 48 50 49 47 46 41 38 38 38 39 33 31 36
28 24 30 33 34 37 38 42 45 42 39 42 39 38 38 36 36 35 34 33 32 30 26 24 27 26 24 20 33 45 47 46 49 49 43 39 39 36 40 29 27 30 32
30 23 20 27 34 35 38 38 43 46 42 40 38 38 37 35 36 36 36 33 32 30 27 26 27 30 29 27 28 39 40 45 47 49 43 38 38 42 34 27 29 30 34
34 34 26 25 31 37 39 39 42 42 43 37 37 37 39 36 38 38 37 33 32 32 29 27 28 31 31 31 32 31 44 48 48 45 41 41 40 41 39 27 30 34 37
39 38 23 25 31 38 41 40 42 39 42 38 38 45 34 37 39 41 39 35 32 32 30 28 30 29 29 33 30 31 36 40 42 45 46 44 42 43 37 35 35 38 39
43 40 41 47 38 36 41 41 43 42 44 40 38 37 35 35 41 43 40 37 32 33 31 29 29 30 28 31 39 43 35 34 36 40 42 40 41 39 37 35 38 38 37
46 48 47 51 48 38 39 44 43 44 45 45 39 34 37 41 43 46 42 38 33 33 31 30 28 29 26 28 40 39 42 34 31 32 38 40 37 41 38 37 35 35 35
52 52 56 60 53 41 40 44 46 43 44 46 43 38 46 39 44 46 45 39 35 33 31 30 28 29 20 24 31 35 39 37 36 32 37 38 39 37 37 37 37 40 41
55 58 63 66 64 44 43 45 47 46 44 48 45 46 45 39 45 47 44 40 38 34 32 30 28 28 26 20 26 37 37 37 35 34 34 35 42 39 33 39 40 42 44
53 57 61 58 51 44 47 47 48 49 46 48 46 45 44 46 46 45 43 42 41 35 34 31 30 29 27 27 23 22 28 35 42 39 37 38 40 38 41 38 39 43 44
48 47 49 51 50 44 51 52 49 49 48 47 49 51 43 45 43 43 41 45 43 38 36 35 33 32 28 26 25 26 26 27 27 26 26 29 35 38 41 44 49 42 42
39 43 47 47 48 44 50 58 54 51 50 49 50 53 52 45 45 38 44 47 46 43 42 41 37 34 33 30 29 30 31 32 31 33 35 39 42 44 44 43 43 44 47
33 32 33 32 31 37 44 56 57 53 50 49 49 50 47 55 39 38 47 52 51 46 45 43 43 40 38 37 35 34 34 32 32 34 35 36 38 41 43 46 49 50 49
29 27 25 28 28 32 41 47 57 54 54 51 50 53 51 50 45 37 52 48 55 49 47 47 47 47 40 38 37 36 34 35 36 37 39 37 39 42 46 44 44 48 51
22 19 22 24 28 29 33 41 49 52 52 50 50 49 53 50 49 48 49 51 47 51 49 48 50 54 43 42 39 38 36 35 38 41 41 43 46 45 47 48 51 54 56
18 21 16 10 7 18 25 31 40 42 49 48 47 48 56 47 52 51 45 48 44 48 45 42 40 43 43 44 42 39 40 41 40 42 46 48 49 50 51 52 54 58 56
14 10 14 10 11 8 13 24 25 34 41 46 45 51 51 49 49 44 46 49 53 42 45 44 38 41 45 39 43 48 47 45 49 48 50 53 54 51 50 46 46 45 46
18 9 6 10 3 10 7 5 22 28 35 43 45 49 54 56 54 49 57 52 51 47 53 45 44 49 44 41 45 54 55 51 50 47 46 44 39 38 41 43 45 47 48
14 11 9 10 9 1 9 7 5 15 29 39 43 45 51 56 59 56 50 49 48 53 49 50 45 46 47 48 48 47 46 44 43 44 40 38 39 42 45 48 49 49 48
12 10 8 10 7 9 6 7 6 5 9 29 39 43 48 55 56 51 57 53 53 47 50 50 51 47 46 42 40 38 37 38 36 37 38 40 44 47 48 47 47 47 48
15 13 9 6 5 9 8 5 5 6 5 6 10 19 31 39 47 48 49 45 45 43 43 44 41 38 35 34 33 33 34 34 36 40 43 46 48 46 45 45 47 49 51
16 15 13 10 6 4 3 10 11 8 6 8 11 9 9 12 16 17 19 21 25 27 28 29 29 30 30 30 31 34 38 40 41 43 44 44 44 44 45 47 49 52 55
18 17 17 15 13 10 9 7 6 7 11 14 15 14 15 17 18 19 20 22 22 23 25 27 28 30 31 32 35 36 38 39 40 40 41 43 44 46 49 52 54 54 56

GFSGL_500_spd_138.txt.gz
Wind_Speed
41 37 38 35 37 38 29 39 45 47 43 46 46 44 44 41 43 42 41 42 40 40 36 37 35 36 34 33 36 32 32 30 30 39 37 37 37 44 38 40 36 35 37
34 41 33 32 31 27 29 30 33 48 49 46 44 45 42 41 41 41 43 42 42 42 36 40 39 35 34 34 36 34 35 33 36 40 46 43 38 43 45 40 41 41 42
39 37 33 33 30 29 27 15 22 29 50 54 46 43 41 44 45 40 44 43 43 44 38 41 40 38 36 35 35 36 35 36 36 35 43 46 43 48 47 44 46 45 45
34 36 35 36 32 32 27 25 29 28 31 48 53 47 46 46 43 46 46 42 41 44 42 44 42 40 39 35 36 38 35 37 39 38 33 40 45 46 48 46 43 45 47
35 38 38 36 34 33 29 28 30 23 27 30 42 59 53 50 46 47 43 42 43 46 45 45 45 42 38 36 38 38 37 35 35 35 28 34 45 44 49 44 44 43 46
49 41 39 44 41 36 31 32 24 21 15 20 31 50 58 55 51 48 45 45 46 48 46 47 46 44 40 38 38 40 37 34 31 36 38 38 37 42 47 49 43 46 44
43 49 46 42 43 37 32 31 25 25 23 19 19 31 46 60 55 51 50 49 49 50 49 47 47 46 43 40 40 40 38 35 33 33 35 33 38 38 39 45 47 39 42
36 41 41 43 39 36 34 34 32 31 32 26 19 24 34 40 53 55 52 52 55 54 51 51 49 46 44 42 40 41 39 37 32 32 34 33 37 33 35 42 39 39 40
32 34 39 40 33 33 33 36 34 35 33 30 23 26 30 33 42 50 54 53 51 54 57 44 51 47 45 44 40 39 39 38 33 31 31 33 36 31 39 40 38 44 44
27 30 31 34 34 33 33 33 30 29 30 31 37 35 34 35 37 43 54 58 51 51 52 52 47 47 46 44 39 40 39 38 33 31 31 37 37 38 37 41 43 40 46
29 30 30 31 32 34 36 37 37 36 38 41 40 45 42 36 38 40 47 53 55 49 52 53 45 47 45 45 40 40 39 38 32 32 30 33 31 37 35 38 41 49 46
29 33 38 39 41 41 42 42 40 40 43 46 45 45 46 44 38 40 43 47 50 47 48 49 48 49 49 45 42 40 39 39 31 30 31 34 40 45 45 40 41 39 42
34 36 38 42 46 49 47 46 47 51 51 47 48 47 52 46 46 40 42 50 46 50 49 47 49 50 49 46 43 41 42 39 30 28 30 30 30 33 39 40 35 30 32
35 38 41 45 47 49 52 53 52 55 59 58 55 54 54 52 53 43 45 46 53 48 49 49 54 49 47 48 44 42 43 38 32 28 28 26 29 33 40 41 39 33 31
37 41 43 45 48 52 57 57 58 57 57 60 61 59 59 57 55 53 48 50 49 54 51 50 52 46 47 48 45 43 42 40 35 29 27 28 26 32 37 42 39 34 35
39 42 44 44 43 44 45 48 52 56 56 57 61 64 66 63 58 58 49 51 50 58 55 54 50 49 45 46 44 43 41 40 37 34 31 30 28 28 30 30 32 37 39
35 37 34 32 36 39 38 39 38 40 44 45 54 61 67 66 60 56 51 52 50 56 62 51 51 58 46 44 43 43 42 42 40 39 37 34 31 30 31 32 36 38 40
33 31 27 28 32 31 32 29 34 35 37 41 44 44 55 60 58 54 54 51 50 50 49 53 52 53 46 45 45 41 40 46 45 43 42 39 36 34 34 35 37 38 40
32 29 27 25 28 31 28 28 26 27 27 29 35 40 41 52 56 55 56 53 51 51 51 50 51 46 42 44 45 50 48 43 49 52 46 46 43 41 41 40 37 39 41
32 29 27 24 24 28 22 25 27 29 26 28 29 30 35 41 48 54 56 54 50 51 52 53 49 48 45 41 46 49 47 46 46 52 49 46 42 47 45 43 42 44 44
29 30 28 25 22 24 23 22 24 26 28 27 27 30 30 32 41 51 55 53 50 51 55 59 54 55 47 39 39 42 48 50 49 48 39 40 36 40 44 44 45 48 52
26 26 27 26 23 21 22 22 16 19 20 22 27 27 25 27 33 42 48 46 45 48 51 54 61 60 50 48 51 50 51 51 52 51 45 45 46 48 48 49 50 54 56
26 27 26 26 25 22 20 22 18 19 16 20 25 18 19 24 29 33 36 38 42 45 49 51 52 56 56 55 56 57 53 56 52 51 53 56 55 56 58 58 55 53 53
30 30 29 27 25 23 20 19 19 16 15 16 17 14 11 19 24 27 30 34 35 41 45 52 54 60 62 62 56 56 55 55 56 56 58 60 62 59 57 54 52 50 47
32 31 31 29 26 23 20 18 17 15 14 14 13 11 5 10 20 24 26 31 34 38 43 47 51 50 49 51 50 51 51 53 54 56 57 55 54 51 51 49 45 44 45
33 30 29 27 25 22 20 17 16 15 13 11 10 9 7 4 4 14 22 28 34 37 32 35 39 42 42 42 44 44 44 45 47 47 46 44 40 39 38 38 38 39 40

GFSGL_500_spd_141.txt.gz
Wind_Speed
44 50 50 51 48 45 44 37 33 36 38 41 45 47 44 47 39 46 46 48 46 45 44 48 39 38 41 36 35 34 32 33 33 29 31 35 36 37 39 42 40 40 40
42 45 48 48 43 35 34 31 33 33 30 37 45 48 46 46 40 40 41 50 53 42 39 40 38 40 44 38 37 35 34 34 37 34 31 35 31 36 43 40 39 40 42
50 46 43 39 36 40 27 25 25 28 32 30 36 53 48 46 46 37 42 42 44 43 44 44 42 42 43 42 38 36 36 36 37 38 32 37 40 40 36 46 42 46 43
39 40 36 36 37 31 32 28 24 24 22 24 28 33 36 60 50 44 41 45 44 41 44 45 43 44 43 44 41 40 39 37 37 37 36 36 40 38 43 40 43 45 44
51 50 49 38 42 32 32 26 27 25 27 24 26 25 33 35 56 46 43 43 46 49 49 45 45 46 43 46 45 42 40 40 41 35 35 36 37 40 40 40 42 45 45
45 35 42 35 33 32 33 31 33 28 23 25 24 20 20 29 44 54 49 45 48 48 41 44 45 47 44 46 47 45 42 42 40 37 36 37 35 39 35 34 39 45 44
44 42 42 43 40 35 34 39 44 29 25 28 26 21 18 17 18 34 60 56 52 48 47 46 48 48 48 49 47 47 46 44 41 36 36 36 38 39 37 34 40 42 48
36 40 44 46 45 43 42 43 39 31 28 31 30 29 27 25 16 21 32 50 63 53 51 51 48 52 57 49 49 49 46 45 41 38 37 37 38 39 38 33 33 33 38
21 27 35 38 37 39 38 37 38 36 32 30 31 32 30 32 29 22 25 33 38 57 56 54 54 54 47 51 48 48 46 45 42 39 37 37 39 39 37 36 36 37 34
11 12 14 18 22 29 35 38 37 36 31 29 30 33 32 33 36 34 21 28 33 38 55 58 55 53 54 52 42 48 48 46 43 40 38 37 37 39 39 39 35 37 38
20 18 19 21 23 24 24 25 26 34 32 32 33 34 35 32 35 39 39 32 30 36 40 48 54 51 50 49 44 50 53 48 44 41 39 39 36 35 36 39 46 44 40
24 25 27 28 29 31 33 33 34 34 35 35 35 34 35 36 38 39 38 34 32 33 37 39 48 53 52 52 50 53 53 47 45 42 42 39 37 35 37 37 38 42 41
30 32 34 37 40 38 38 41 44 46 47 46 46 45 44 46 45 42 41 41 40 33 34 39 40 46 53 51 52 49 49 48 46 43 42 39 37 36 35 37 38 44 47
27 29 29 31 36 40 42 45 47 49 51 51 55 56 56 54 55 52 47 42 44 44 38 38 39 42 56 41 44 44 51 49 45 45 44 41 36 36 34 34 32 32 35
26 27 30 33 37 41 44 45 47 50 54 57 61 63 64 64 63 62 57 51 47 48 49 39 41 46 51 52 52 50 55 49 47 48 45 42 36 37 32 32 31 34 37
29 32 33 36 37 40 40 40 39 38 43 50 57 63 67 69 67 69 69 63 56 53 52 49 43 45 53 51 51 51 55 51 49 50 47 43 38 39 35 31 30 32 36
36 37 38 38 38 38 35 35 37 38 37 40 43 47 50 55 61 66 66 67 66 60 52 54 49 49 52 49 52 56 51 47 46 48 48 43 41 42 38 34 32 33 36
40 37 37 39 38 35 32 30 33 36 37 34 36 41 44 44 44 49 59 63 63 62 59 61 54 52 53 53 57 51 50 48 46 46 46 42 42 44 42 38 36 36 37
39 35 34 32 32 33 31 28 30 31 29 31 31 33 38 41 46 50 52 53 57 60 64 60 53 55 56 59 55 57 51 49 50 45 46 45 44 46 45 45 41 39 40
29 30 32 29 27 28 29 27 26 25 28 30 34 34 35 36 39 42 48 52 55 56 57 58 54 55 58 58 60 47 50 50 51 48 50 48 46 42 40 41 47 43 44
26 26 25 25 23 24 25 26 25 26 27 25 29 32 38 40 40 39 43 48 50 51 52 55 55 56 56 56 49 49 54 52 48 45 45 48 50 44 41 38 40 42 45
24 25 26 27 27 25 23 24 24 24 26 23 23 25 30 35 41 39 36 44 48 49 51 56 57 56 58 57 56 57 54 46 44 46 42 43 46 45 49 43 40 40 44
26 29 29 30 30 29 26 23 23 23 22 23 22 23 22 24 22 25 28 33 42 44 47 53 53 54 53 60 60 50 53 50 46 43 45 47 48 53 51 49 49 51 53
30 31 33 30 28 28 28 25 22 22 20 20 20 20 20 19 11 17 23 24 32 38 39 43 45 47 48 51 53 50 50 47 46 52 56 56 57 60 57 55 56 56 57
31 32 32 32 30 29 27 25 22 19 19 16 17 17 16 16 11 9 15 23 27 30 33 34 38 43 46 50 57 56 54 54 59 61 63 61 59 59 58 57 56 57 56
30 31 33 31 29 25 23 21 19 17 17 16 13 13 13 13 10 6 10 18 26 31 33 35 36 39 44 48 49 48 47 51 55 58 57 53 52 51 52 50 49 48 47

GFSGL_500_spd_144.txt.gz
Wind_Speed
36 47 54 57 61 54 48 48 43 47 51 49 44 47 33 32 36 38 36 38 41 38 45 42 41 42 43 41 39 40 40 40 35 36 32 33 35 33 33 33 37 40 42
40 50 51 57 62 64 50 48 51 51 49 42 39 35 38 34 37 38 38 40 44 45 43 44 42 42 43 46 43 41 40 42 40 36 33 32 35 33 35 34 35 40 42
40 41 35 48 54 50 49 48 46 45 45 35 36 39 38 38 39 40 42 42 45 47 44 49 45 45 45 46 48 44 42 43 42 39 36 33 34 35 33 37 43 47 38
37 48 50 31 25 39 38 37 39 36 31 34 34 38 36 35 36 39 48 50 47 48 46 47 49 51 46 44 44 44 44 45 44 40 36 35 35 34 37 34 37 42 43
26 39 44 49 38 31 35 37 39 33 30 31 31 24 27 31 32 39 38 47 53 50 50 49 46 48 51 48 46 46 45 45 46 44 38 36 36 35 35 37 37 39 45
29 38 38 41 40 35 38 36 36 34 34 29 28 29 29 27 33 33 40 38 42 50 45 42 48 49 45 50 50 46 48 47 47 46 41 39 37 36 39 39 39 40 39
38 38 35 37 42 43 41 41 33 32 35 34 30 30 25 25 26 28 26 25 29 42 53 48 46 45 53 54 53 48 49 50 50 47 45 42 38 39 43 38 39 42 40
31 45 44 41 36 43 46 39 41 41 39 40 38 30 29 29 28 27 28 23 19 25 48 51 48 49 46 47 46 45 49 49 50 46 46 43 40 43 42 41 39 39 40
20 25 30 33 34 37 38 41 43 38 37 33 36 36 34 34 32 32 34 31 25 22 27 38 60 50 49 45 46 45 55 52 51 48 48 45 44 45 43 42 40 41 39
5 4 10 18 18 22 28 32 33 37 36 34 33 33 35 36 33 34 32 37 31 24 22 29 36 53 60 54 51 50 55 40 46 47 47 46 45 43 42 42 41 41 40
14 14 13 13 13 12 15 15 19 24 29 32 35 36 39 39 39 37 33 33 33 32 31 29 32 38 39 59 56 51 46 44 43 46 44 48 45 43 41 42 41 42 42
22 22 22 22 22 22 23 24 24 25 25 27 28 37 38 39 39 39 39 37 36 35 37 35 31 33 38 42 53 60 47 44 49 46 43 46 45 43 42 42 42 42 42
25 26 28 31 33 32 34 34 33 35 35 36 37 39 40 40 41 43 44 44 43 41 39 40 40 33 36 39 40 45 51 51 50 44 42 47 49 45 42 42 43 42 42
25 27 27 28 33 34 35 38 42 47 47 46 46 46 46 48 50 50 49 50 48 45 45 42 43 44 37 37 41 41 46 53 50 47 54 40 48 46 44 44 44 41 42
24 25 28 31 32 33 35 34 36 37 41 46 49 52 57 57 58 59 60 60 58 55 52 51 48 47 47 40 39 44 45 47 54 56 51 45 45 45 46 46 44 42 41
27 28 30 32 34 36 37 38 36 37 39 40 46 51 55 62 69 72 70 70 68 67 62 59 56 52 51 49 42 43 46 44 51 44 40 44 51 47 47 46 46 44 41
33 33 36 39 39 38 38 40 40 39 39 39 38 41 45 51 56 63 69 73 75 75 72 70 66 61 56 51 50 45 47 48 48 48 48 47 47 47 48 46 48 46 42
32 35 39 42 41 38 38 37 36 37 41 38 34 36 40 43 43 44 47 47 57 70 74 74 73 70 68 61 52 53 48 51 56 59 53 53 52 51 47 48 48 48 47
33 36 36 32 28 29 32 34 34 33 35 34 33 33 35 38 40 40 42 43 43 45 52 67 73 71 70 67 61 56 53 52 57 53 53 51 51 50 49 51 48 47 46
34 32 27 25 24 25 27 29 28 29 30 33 34 33 33 34 39 41 40 40 42 45 49 49 56 68 69 65 64 62 55 55 54 55 55 48 47 47 44 45 48 49 44
32 30 27 25 25 26 28 30 30 28 29 31 31 32 30 30 30 35 40 42 45 46 46 46 48 52 62 66 65 61 53 56 54 62 54 47 53 53 47 47 48 48 43
34 33 31 30 30 30 32 33 32 31 30 29 31 31 30 29 29 32 35 39 44 45 46 44 45 51 51 62 65 63 59 58 62 63 55 52 57 52 51 48 50 53 52
35 34 33 32 32 32 32 30 29 29 30 30 29 31 30 30 28 30 36 41 42 46 50 54 51 49 49 54 62 64 59 60 61 64 64 58 54 50 47 44 45 43 44
37 36 34 33 32 32 32 32 31 29 29 29 29 27 27 26 26 27 27 25 24 26 32 40 46 45 46 48 52 55 56 58 63 59 55 56 59 53 53 49 47 45 46
39 38 36 33 32 31 31 31 30 28 27 27 27 23 21 21 22 22 21 15 17 21 28 35 39 42 40 37 40 46 50 55 51 57 59 54 61 61 58 55 55 54 55
41 40 38 36 32 31 29 28 26 23 22 23 23 21 18 16 17 17 17 14 10 15 23 26 28 35 37 36 39 41 47 52 45 48 49 49 53 54 57 60 60 59 56